GFSFLT2_500_spd_000.txt.gz
Wind_Speed
33 35 38 38 39 39 39 38 39 40 42 40 42 48 48 48 45 44 46 42 43 49 47 45 42 38 40 35 39 38 39 36
31 33 35 36 37 37 34 33 36 36 35 36 36 36 47 52 53 52 50 51 54 53 53 52 49 42 41 36 40 40 43 42
28 30 33 33 32 32 33 33 33 35 37 39 37 37 38 42 53 57 58 57 58 61 60 61 56 51 46 43 41 42 44 50
30 30 30 30 31 31 29 30 31 32 35 39 41 43 42 45 50 62 63 66 67 62 63 65 64 57 49 50 49 47 43 49
29 29 30 33 34 35 36 36 36 37 40 44 47 48 48 46 47 41 71 63 59 60 55 73 63 61 57 52 52 50 48 50
30 31 33 34 34 30 29 28 28 28 28 30 34 37 34 35 35 33 47 35 48 50 29 40 57 69 60 55 54 53 51 46
13 14 13 16 19 21 20 19 19 19 21 23 24 25 27 27 32 36 34 54 53 64 53 56 54 42 51 57 57 57 53 54
12 13 15 16 18 20 23 24 24 28 30 31 32 33 32 30 29 29 28 31 37 53 48 50 65 67 61 59 59 57 57 51
18 20 22 25 26 29 32 32 34 34 34 36 37 39 39 37 37 35 36 33 32 31 40 49 44 41 42 54 61 61 61 60
23 27 29 30 33 34 36 38 39 40 41 41 41 42 44 43 42 42 40 40 40 38 36 38 39 45 51 45 44 50 53 57
30 31 32 34 36 38 40 42 44 45 46 46 46 46 47 47 46 47 48 45 46 46 44 42 43 43 41 47 45 51 55 56
33 34 35 37 39 42 44 46 48 49 51 52 52 53 53 52 51 50 50 51 51 50 49 49 49 48 48 46 46 48 50 55
35 36 38 40 42 44 45 48 51 52 53 55 57 58 58 57 57 57 56 55 54 54 54 54 54 53 53 52 51 50 52 49
38 40 42 44 47 50 52 55 56 57 58 59 61 63 64 63 62 61 60 60 59 59 59 59 59 59 58 57 56 57 56 55
41 44 47 49 51 53 56 61 61 62 63 65 67 67 69 68 66 65 65 64 64 64 64 64 63 63 63 63 64 64 63 60
45 48 50 53 55 57 60 63 65 66 66 67 70 71 70 72 71 68 67 68 68 67 66 67 68 70 70 70 68 68 69 70
48 52 55 57 59 63 64 66 67 70 72 70 70 70 70 71 73 71 67 68 67 68 68 68 70 71 71 72 73 72 74 76
50 54 58 61 63 65 66 68 71 71 70 71 73 70 69 72 74 72 70 70 70 69 69 68 69 70 73 76 78 79 81 84
56 59 63 66 67 69 70 70 70 70 69 69 68 66 68 70 70 69 69 71 72 73 74 73 73 73 74 77 80 83 85 86
63 67 69 70 71 72 74 75 71 71 68 65 64 64 65 66 66 67 68 70 71 73 76 79 82 83 83 82 82 81 84 86

GFSFLT2_500_spd_003.txt.gz
Wind_Speed
30 30 30 30 30 32 34 37 38 37 36 36 38 42 44 42 38 39 48 51 43 46 51 42 41 42 38 32 31 38 38 40
28 28 28 28 27 30 31 33 32 32 34 35 38 39 42 43 41 40 42 48 50 48 50 50 49 48 45 45 40 41 45 48
27 27 26 26 26 27 29 29 29 30 32 35 37 38 40 42 43 44 44 45 49 54 54 56 55 55 53 50 46 44 45 45
27 28 29 28 29 30 31 31 32 32 34 37 39 42 45 47 50 50 50 52 52 53 54 63 63 58 54 53 53 51 47 50
30 30 31 30 30 33 35 35 36 37 37 38 39 42 45 46 48 47 45 46 53 56 62 61 65 69 60 56 61 59 53 55
13 14 15 15 15 15 15 16 17 18 19 20 23 22 22 20 20 25 31 38 44 50 51 47 55 39 49 63 59 62 60 56
7 8 10 13 15 17 19 21 23 24 26 27 29 30 30 31 30 29 29 31 33 35 37 48 41 59 54 48 50 59 65 58
10 13 14 16 18 22 24 27 31 32 33 35 35 35 36 38 37 37 37 35 34 34 31 33 27 41 67 55 53 54 72 58
20 22 24 26 27 28 29 31 32 34 36 37 38 39 40 39 39 39 39 41 40 37 37 32 34 35 38 40 48 62 51 53
27 28 30 31 32 35 37 39 41 42 43 45 46 45 45 45 45 45 43 43 44 44 42 39 37 33 34 37 39 36 45 35
26 27 28 30 33 37 40 42 45 47 49 51 53 53 53 52 50 49 48 47 47 46 45 45 43 40 38 35 35 36 38 36
26 28 29 32 36 39 42 44 48 49 52 54 56 57 58 57 57 55 54 53 51 49 49 49 47 45 43 42 40 38 36 40
27 29 31 35 38 41 44 48 50 53 56 57 59 59 58 59 62 61 60 60 57 54 53 51 50 51 49 49 46 45 45 41
34 35 36 40 44 48 52 55 57 59 61 63 64 66 67 64 63 63 64 63 63 61 58 57 55 54 53 53 52 51 49 48
37 40 43 45 49 51 53 58 63 66 68 68 69 69 70 72 68 68 65 65 64 61 60 61 61 60 59 57 56 56 54 51
45 48 49 51 52 55 58 59 63 67 71 72 71 71 73 72 73 74 73 68 63 60 63 63 63 61 62 62 60 59 58 58
51 52 53 56 59 58 62 64 68 69 70 73 72 71 69 70 71 72 72 72 70 62 62 64 63 63 62 62 61 61 61 61
53 54 57 59 61 62 66 69 72 73 73 73 71 67 66 67 66 67 68 68 69 64 61 62 62 61 60 61 63 64 64 66
53 54 56 60 64 67 69 72 73 74 74 72 69 66 64 64 64 64 64 64 62 62 60 59 59 59 61 61 61 64 67 69
56 56 59 63 67 71 73 75 74 74 71 66 64 63 64 63 63 63 62 60 60 59 58 58 60 62 62 62 64 64 65 67

GFSFLT2_500_spd_006.txt.gz
Wind_Speed
34 34 31 28 27 27 26 25 26 27 29 30 32 33 35 35 35 37 37 37 38 40 36 33 34 30 35 39 33 31 33 32
25 25 21 22 25 25 26 26 26 26 28 29 28 31 33 35 36 38 38 39 39 38 38 38 34 40 40 40 42 43 38 38
24 25 23 25 27 23 24 25 25 27 28 29 31 35 38 38 37 40 42 43 45 45 45 43 43 40 42 45 42 48 49 47
25 26 26 26 26 25 24 26 28 29 30 31 32 33 36 38 40 41 42 44 46 48 47 44 43 47 50 47 53 54 56 53
15 17 16 15 15 14 12 13 15 17 19 20 21 22 24 26 28 26 25 29 30 28 32 37 42 48 47 50 58 61 62 59
11 12 13 14 14 13 14 16 16 17 20 21 23 24 26 29 31 32 31 30 32 35 32 34 37 39 37 42 36 45 60 63
13 13 16 17 17 19 19 22 23 24 26 28 29 31 34 35 35 35 36 35 34 34 33 33 34 35 36 44 35 42 43 66
16 17 19 20 21 24 26 27 29 30 32 33 35 35 35 37 39 40 40 40 40 39 37 36 34 33 34 31 34 35 44 41
19 20 22 24 24 27 29 31 34 35 37 39 40 42 43 43 43 43 45 46 46 45 45 44 41 39 36 33 31 36 37 47
22 24 24 27 29 32 33 34 37 38 40 43 45 48 50 51 51 50 50 49 47 47 49 49 48 44 41 38 37 32 30 39
23 23 25 26 29 32 33 36 40 42 44 45 46 48 51 53 54 54 54 53 51 50 50 49 49 48 47 44 41 39 36 32
27 28 30 32 34 36 39 40 45 46 49 51 50 54 56 59 61 59 58 58 57 57 56 54 51 50 49 48 47 44 41 39
32 35 36 36 41 43 46 48 49 51 52 55 55 58 60 64 70 71 70 65 60 59 59 59 59 56 51 49 49 50 47 46
39 42 44 45 46 50 51 53 54 57 59 62 63 63 63 67 67 66 68 69 69 67 64 60 59 58 57 52 50 51 53 51
42 46 49 51 52 55 56 56 58 60 64 66 67 69 71 70 67 67 68 67 66 67 67 66 62 58 58 57 53 52 54 55
44 49 49 50 53 54 56 59 60 61 64 68 71 74 74 74 71 68 68 66 64 64 64 63 63 63 61 58 58 55 54 54
48 51 50 51 56 57 58 58 60 63 67 71 74 73 71 70 67 65 62 64 63 65 62 61 61 62 61 59 59 58 56 55
52 53 52 54 56 59 60 60 62 67 71 72 70 67 65 64 61 61 59 59 62 63 63 62 60 59 60 59 57 59 57 56
57 56 56 56 57 59 61 63 66 69 70 71 71 67 62 61 60 60 60 65 64 61 61 60 58 56 56 56 57 56 57 57
56 62 64 63 64 63 65 64 67 68 70 71 64 61 60 59 57 59 60 64 65 64 61 59 58 54 53 53 54 54 55 57

GFSFLT2_500_spd_009.txt.gz
Wind_Speed
29 32 33 34 33 26 26 28 28 27 26 25 25 26 27 28 30 29 30 33 30 31 32 31 30 28 27 26 25 23 28 30
20 21 21 23 21 21 24 25 25 23 23 23 23 25 25 27 27 28 29 31 35 35 34 32 33 33 30 27 28 30 30 34
20 20 17 18 19 19 23 24 23 22 23 24 25 25 25 25 26 27 28 29 30 28 30 29 28 28 29 32 32 31 36 40
16 16 14 14 14 10 10 10 12 13 14 15 17 19 17 17 19 22 23 25 26 26 24 23 24 23 23 27 32 37 40 42
8 8 9 10 12 13 12 10 10 12 13 17 19 20 23 25 26 28 29 30 31 31 30 27 25 25 25 27 28 36 38 45
12 11 13 15 16 16 16 19 18 20 23 24 25 27 28 30 32 33 33 33 33 34 36 37 34 30 30 30 30 29 29 38
15 16 18 18 20 21 21 22 24 25 27 29 30 32 34 35 36 36 37 39 38 39 38 37 38 38 34 33 32 32 27 32
18 19 21 22 23 26 27 27 28 28 29 32 33 34 36 37 38 39 40 42 42 42 44 44 44 42 42 41 37 33 31 31
22 21 22 24 25 27 29 31 32 33 34 35 36 37 38 39 40 40 42 42 44 45 46 47 48 49 47 45 44 42 35 35
20 22 23 26 27 30 31 32 34 34 34 37 39 39 41 43 44 45 47 47 48 47 46 47 49 49 51 50 48 44 44 43
24 27 29 31 34 36 37 38 41 43 43 44 45 47 49 50 51 52 54 54 54 55 60 57 50 50 52 53 52 50 48 47
27 29 30 33 35 39 42 43 45 47 50 52 51 52 54 54 56 56 56 59 61 62 61 61 60 55 53 54 54 54 53 52
31 36 38 38 43 46 47 48 48 50 53 55 55 56 58 58 59 61 62 65 66 65 64 64 64 63 61 56 57 57 57 58
39 40 43 47 49 48 50 50 50 53 55 57 59 60 60 60 61 65 68 70 71 67 67 65 65 65 63 61 58 59 60 61
40 45 48 51 51 51 51 51 52 54 57 59 62 62 63 66 68 70 72 71 70 67 63 62 63 62 64 63 60 59 60 60
45 48 49 52 55 56 54 53 55 57 58 61 62 63 65 68 70 72 72 70 64 60 59 57 60 63 62 59 60 60 60 59
42 48 49 51 51 53 57 59 58 58 57 59 64 66 66 69 71 72 71 67 62 60 60 59 58 57 57 59 58 59 61 60
46 48 50 50 52 54 55 58 58 59 59 60 62 66 68 69 69 67 63 60 59 60 59 58 60 61 61 58 58 57 57 61
53 55 59 59 61 61 62 60 59 58 58 61 64 64 64 65 65 63 61 60 59 56 60 64 62 67 66 62 60 57 56 58
59 61 64 62 60 63 64 62 62 64 66 66 66 67 65 63 63 63 63 59 56 57 63 65 64 66 68 65 64 58 55 55

GFSFLT2_500_spd_012.txt.gz
Wind_Speed
21 22 25 26 24 23 24 24 22 23 24 24 23 22 23 23 22 23 24 24 27 27 26 28 26 25 26 23 22 18 12 21
18 19 19 19 19 21 24 25 23 26 24 23 23 23 23 23 23 21 20 18 18 17 15 18 18 19 17 20 23 20 21 22
12 15 15 14 12 14 17 17 18 18 19 20 18 16 14 13 14 15 17 18 19 20 17 15 18 17 17 13 14 18 25 29
11 7 4 5 6 7 8 8 9 9 9 11 14 17 19 20 20 22 23 25 27 27 27 24 22 20 19 21 18 19 21 26
12 14 14 14 15 15 17 17 18 18 20 21 22 23 24 26 27 29 29 30 30 32 31 31 31 29 26 25 27 26 26 31
13 14 16 18 19 18 20 21 22 24 25 26 28 29 29 30 30 32 33 34 34 34 34 34 34 34 35 34 34 32 32 32
18 18 19 21 24 24 24 25 26 28 29 29 30 32 32 32 33 33 34 36 35 35 35 36 37 37 37 37 39 38 38 36
18 19 21 22 24 25 25 26 27 29 30 31 31 33 34 35 35 36 37 37 37 37 37 37 38 40 41 42 41 40 41 41
21 22 22 24 25 28 29 30 32 33 34 35 37 38 38 39 40 41 41 41 42 42 44 44 43 41 41 43 45 46 44 44
18 21 24 26 28 30 32 34 36 39 41 44 45 46 47 46 45 46 47 47 48 49 49 50 51 51 51 50 48 49 50 49
21 22 24 29 32 36 37 39 43 45 45 47 49 49 51 52 51 52 54 53 53 53 54 53 55 57 58 58 55 54 53 55
29 32 37 38 37 40 44 45 45 46 48 49 50 51 54 55 55 56 56 57 56 56 57 58 61 63 64 62 60 58 58 56
39 42 42 43 45 47 49 51 52 52 54 53 52 52 55 57 58 60 61 60 59 61 62 62 64 67 65 66 65 62 59 61
40 43 46 47 50 51 54 55 54 54 54 56 58 58 58 58 60 61 60 58 59 62 63 64 65 66 67 67 65 62 62 61
37 39 45 50 51 53 54 54 53 54 58 58 58 60 61 61 61 61 63 62 61 63 65 66 66 66 67 67 66 65 61 60
36 38 44 49 51 55 57 59 59 58 57 58 60 60 61 61 62 62 62 65 66 67 68 68 63 61 64 65 68 69 67 64
44 45 47 51 49 50 56 57 58 60 58 58 59 59 58 60 63 65 66 65 66 69 72 70 65 63 63 65 66 66 67 68
47 48 51 52 54 54 55 57 56 57 56 57 58 60 60 60 62 63 65 68 69 70 69 68 69 69 69 70 65 62 60 63
53 53 55 57 60 60 60 59 60 61 61 63 65 68 68 67 66 66 66 67 65 66 68 67 70 72 72 70 71 69 64 63
59 58 60 62 61 61 61 62 62 62 64 67 69 69 69 69 67 67 64 61 64 67 67 69 70 71 72 73 73 71 67 65

GFSFLT2_500_spd_015.txt.gz
Wind_Speed
21 21 20 18 19 21 23 23 23 22 23 24 24 23 23 24 24 24 24 25 25 26 24 20 20 21 23 24 24 25 23 22
19 18 17 16 17 17 18 18 18 18 19 18 19 21 20 19 19 19 18 15 14 15 15 14 14 14 14 13 16 25 23 23
6 7 7 8 11 14 17 17 17 18 17 15 14 14 16 16 15 16 18 18 19 21 21 21 20 19 17 17 16 15 16 21
10 7 6 7 9 13 15 15 16 18 18 18 19 21 22 24 25 25 26 26 26 27 27 26 25 22 21 20 21 21 18 19
7 7 9 11 13 15 19 22 22 22 24 24 25 26 26 27 28 28 29 30 31 32 32 32 31 30 28 26 24 25 24 24
14 15 16 18 19 20 20 22 24 25 27 28 27 29 30 30 30 32 32 32 32 33 32 33 33 34 34 32 29 29 30 30
16 17 18 20 20 21 21 23 23 25 27 29 30 31 32 33 34 34 35 36 36 36 36 35 35 35 36 37 36 33 33 34
19 21 20 20 22 24 25 26 28 30 31 32 34 36 38 39 40 42 42 42 42 42 42 43 43 43 42 42 41 40 38 37
21 23 25 26 27 27 28 30 33 36 39 41 43 44 44 44 45 46 47 46 46 46 47 48 48 48 48 47 46 47 47 46
21 23 26 29 32 36 39 40 39 40 43 46 48 49 49 49 49 49 50 50 50 51 51 50 51 52 52 52 51 50 50 50
26 29 33 36 39 42 43 42 43 45 49 51 52 53 54 54 53 53 54 54 54 54 55 55 56 54 54 54 55 54 55 56
33 33 37 41 42 43 45 47 48 48 49 51 53 54 54 55 57 59 59 58 57 57 58 60 60 59 58 58 59 59 59 58
32 36 39 41 42 44 49 50 50 53 54 53 52 53 56 59 59 60 60 60 60 60 60 61 60 61 62 63 61 61 61 62
34 36 40 45 48 48 50 52 51 54 54 56 59 62 62 61 59 59 60 61 61 60 59 58 59 60 61 62 62 63 64 67
35 39 44 49 53 55 55 53 55 54 56 59 62 65 65 65 63 61 60 60 60 61 62 61 59 61 62 63 64 65 67 69
39 43 48 50 53 55 59 57 58 60 63 64 64 64 64 65 64 63 63 64 66 67 67 67 66 63 64 64 65 66 70 71
46 50 54 54 53 54 56 57 58 59 59 59 60 61 62 63 63 64 66 67 68 69 69 69 68 68 69 71 70 69 69 71
54 56 58 55 55 56 59 59 57 57 58 61 61 63 64 66 67 68 66 64 65 66 66 67 69 68 69 71 71 72 72 72
58 59 60 59 57 56 56 58 60 62 64 67 69 71 72 71 70 69 68 67 65 65 65 65 67 65 69 71 74 75 73 75
58 59 58 58 58 59 61 63 64 67 71 74 75 75 75 74 72 71 67 65 64 62 66 65 62 64 69 76 73 74 75 75

GFSFLT2_500_spd_018.txt.gz
Wind_Speed
18 19 20 21 21 21 19 16 16 16 16 17 18 20 20 22 21 22 23 24 24 23 21 17 16 18 19 19 21 25 27 27
11 12 11 11 9 7 10 11 11 12 13 13 13 13 13 14 15 16 16 16 16 16 16 16 16 17 19 17 15 16 22 27
6 6 6 7 9 12 14 15 17 18 19 19 18 19 21 22 23 22 22 21 21 22 22 23 23 23 23 22 20 19 19 18
10 12 13 14 16 17 18 18 18 19 20 21 21 22 23 25 26 26 26 27 26 27 27 26 26 26 26 27 26 23 22 21
10 12 13 13 13 14 16 18 19 21 22 23 23 23 24 25 26 27 27 28 28 28 27 28 28 29 28 28 29 29 29 27
12 12 13 14 16 18 19 21 22 24 26 27 27 29 29 31 33 34 36 38 38 37 36 34 33 32 31 32 30 30 30 31
15 16 16 17 18 18 20 22 24 25 27 29 30 32 35 36 37 38 38 39 40 41 42 42 41 41 39 39 38 36 34 34
17 20 21 22 23 24 26 28 30 33 36 37 37 37 39 40 41 43 43 44 44 43 42 43 44 44 44 43 44 43 42 40
25 24 25 27 28 30 33 35 37 40 42 43 43 44 45 46 46 45 46 46 45 44 45 47 47 47 47 47 46 47 48 47
23 26 29 31 33 35 37 39 42 44 44 44 46 45 46 46 48 48 47 47 47 48 50 52 53 53 53 53 52 52 52 52
29 31 32 34 38 40 42 44 45 46 47 49 50 50 51 52 52 51 52 54 54 56 56 56 55 55 55 56 57 58 57 56
33 36 38 39 40 41 41 43 45 48 50 51 53 53 54 55 56 58 59 59 58 59 58 58 59 59 59 58 58 59 58 57
33 38 40 41 41 45 48 50 51 53 54 55 56 56 56 57 58 59 61 61 60 60 59 59 59 58 58 57 58 59 59 59
35 40 43 45 47 52 55 55 57 57 57 56 58 60 62 63 63 62 61 61 61 62 61 59 56 55 57 59 59 60 62 63
39 42 46 49 52 56 55 56 58 59 59 56 56 58 59 60 61 62 63 64 64 65 65 65 63 62 59 60 62 62 61 62
41 44 46 50 54 56 56 56 57 56 55 56 57 58 58 59 61 63 64 66 67 68 69 68 68 67 67 63 61 62 63 64
48 50 51 53 53 56 57 56 54 55 54 56 58 60 62 63 65 67 68 69 69 68 69 68 69 67 67 67 61 62 62 65
50 50 50 52 54 55 55 56 58 59 62 63 64 65 67 69 72 74 75 75 74 74 72 70 68 64 62 62 63 64 65 65
52 54 57 57 57 63 66 64 63 67 69 72 73 74 75 74 76 80 81 79 77 75 72 70 68 65 63 62 59 66 68 69
56 57 57 58 61 67 66 65 65 69 72 75 77 78 79 82 82 79 78 77 76 72 68 66 65 63 62 57 55 64 62 60

GFSFLT2_500_spd_024.txt.gz
Wind_Speed
8 7 6 8 8 9 9 11 11 12 12 12 11 12 12 13 14 15 15 15 15 16 16 16 15 15 16 16 17 17 17 18
2 3 4 4 5 6 7 8 9 10 11 11 11 11 13 13 14 15 16 17 17 18 19 20 21 20 20 21 21 20 19 19
2 3 4 4 4 6 8 10 11 12 13 13 13 14 14 15 16 17 18 19 20 20 21 22 23 24 24 24 24 23 22 23
4 6 7 10 12 14 15 16 17 17 18 18 18 18 19 20 21 22 22 23 25 26 26 25 26 27 28 29 28 28 26 24
9 11 14 15 16 18 18 18 20 21 22 23 24 26 28 30 32 32 30 30 31 31 31 32 32 31 31 31 32 33 32 31
15 16 17 16 18 20 22 23 25 26 28 30 31 32 33 34 34 34 34 34 35 36 37 37 37 37 37 36 35 36 36 36
17 17 17 19 21 24 27 29 31 32 33 33 33 34 33 33 34 35 37 37 37 37 37 37 38 39 41 40 39 38 37 38
20 20 21 23 25 28 32 33 33 34 35 36 36 35 37 39 40 40 40 41 41 41 40 40 40 40 39 40 41 41 42 42
24 25 26 28 31 33 34 34 35 36 37 38 39 40 42 44 43 43 43 41 40 41 41 42 42 43 44 45 46 46 46 47
26 27 28 30 33 34 36 38 39 39 39 42 44 46 49 47 45 45 44 42 41 42 42 42 43 44 45 47 47 48 48 49
31 33 35 35 37 39 42 42 41 42 45 46 47 49 49 48 47 47 47 47 47 49 49 48 48 47 48 48 48 47 48 48
36 38 35 37 40 41 42 42 45 47 49 50 51 52 51 51 51 53 55 56 57 58 56 55 53 53 54 54 53 53 53 52
38 40 39 40 41 43 45 47 49 51 52 52 53 54 56 56 57 57 59 61 62 62 62 62 62 61 61 61 61 60 58 58
39 40 41 43 45 46 48 50 51 52 51 53 55 57 58 59 61 62 63 63 64 64 64 66 67 65 66 65 66 67 67 61
40 41 44 46 48 49 49 50 50 51 54 58 60 61 62 64 65 68 69 67 67 67 68 69 69 70 71 70 71 72 73 74
41 43 45 45 46 48 50 51 53 54 57 61 64 63 65 67 68 69 71 72 73 74 73 73 73 73 76 77 74 71 69 71
44 43 44 46 49 50 51 55 60 63 65 65 68 71 73 75 75 77 77 77 77 77 76 76 79 79 77 76 75 76 70 70
42 45 48 51 53 54 56 59 62 67 70 72 74 76 78 80 81 80 79 78 78 79 81 81 80 81 80 79 77 73 73 71
48 51 54 56 58 61 64 68 69 71 74 76 77 78 79 80 81 82 83 84 84 82 81 83 83 85 82 81 79 76 74 73
52 54 55 59 62 65 68 69 71 73 74 76 77 78 79 81 83 84 84 85 87 86 86 87 88 87 86 85 82 78 74 72

GFSFLT2_500_spd_027.txt.gz
Wind_Speed
7 7 6 5 4 4 5 6 8 9 9 8 8 9 9 10 10 11 12 13 15 15 15 15 15 15 17 17 18 18 19 19
4 2 2 3 5 7 8 9 10 11 11 12 12 12 13 13 14 15 16 17 17 17 17 18 19 20 21 21 21 22 22 22
3 4 6 8 9 11 12 13 15 16 17 18 19 20 20 20 21 23 24 26 27 27 27 25 23 22 22 23 25 26 26 26
8 9 10 12 14 16 18 19 19 20 20 21 22 23 25 26 27 29 30 30 30 30 30 31 31 31 30 31 30 29 29 30
12 13 15 17 18 20 20 21 22 24 26 27 28 29 29 30 30 30 31 31 32 31 33 35 35 35 35 33 34 34 34 34
16 17 18 21 22 22 23 24 27 30 32 32 32 33 34 33 33 33 34 37 37 37 37 37 37 36 37 36 35 35 36 37
18 19 21 23 25 26 28 30 32 35 36 36 35 36 35 35 35 37 39 41 41 39 40 40 38 39 40 41 41 39 37 37
20 23 26 28 30 32 33 34 36 38 38 39 40 40 39 40 41 42 45 46 42 42 42 41 40 39 39 39 42 43 43 42
24 26 29 31 32 33 34 36 37 40 42 42 41 41 43 44 44 45 46 43 42 41 41 41 40 41 42 43 43 45 45 44
27 31 33 33 34 33 35 37 39 41 41 42 43 45 45 45 46 45 44 45 44 45 45 46 46 47 47 48 48 47 48 47
33 35 35 35 37 39 39 42 43 45 46 47 46 46 46 47 48 49 49 51 53 53 53 54 53 52 52 53 51 51 51 51
36 38 40 41 43 43 44 46 47 49 50 50 49 50 51 53 55 57 58 59 60 60 62 62 64 63 63 62 61 61 61 60
39 42 43 45 46 47 49 50 52 53 53 52 53 53 55 57 60 62 62 63 64 65 65 66 67 68 68 65 67 66 67 67
43 44 46 47 49 50 51 53 54 54 54 54 57 58 58 60 63 67 67 66 67 69 70 71 71 71 68 66 67 70 71 69
44 46 47 48 51 52 53 54 52 53 55 56 57 59 64 68 69 69 69 71 74 75 76 76 76 74 74 71 70 67 67 68
46 48 49 49 51 50 50 52 53 56 58 59 61 64 64 68 71 73 74 76 78 78 78 79 79 77 76 75 75 72 69 70
48 48 48 47 48 50 53 54 56 58 62 65 66 68 70 72 73 74 75 77 78 79 80 81 81 81 80 79 77 74 73 75
46 44 46 48 51 54 55 57 60 64 66 68 71 73 73 73 74 76 78 80 81 81 81 82 81 83 84 84 85 83 80 79
44 47 50 53 54 57 60 63 66 69 71 73 73 73 73 73 74 75 77 79 80 81 83 84 85 85 87 87 88 88 86 84
48 50 52 56 60 62 64 67 69 71 74 78 77 76 75 78 79 80 81 80 83 85 84 86 85 86 88 89 89 87 83 80

GFSFLT2_500_spd_030.txt.gz
Wind_Speed
6 6 5 4 4 5 6 8 9 10 10 11 12 12 13 13 13 13 14 15 15 16 17 17 18 18 19 19 19 20 20 20
3 3 5 7 8 10 11 12 13 15 16 16 16 16 17 18 19 19 20 22 24 24 23 23 22 21 21 22 23 23 24 26
6 7 9 9 14 14 16 17 18 19 20 20 20 21 22 23 26 26 26 26 26 25 26 26 26 27 27 27 26 25 26 28
8 11 13 15 16 19 20 21 21 22 22 25 25 27 27 26 26 27 27 29 27 27 29 30 29 30 29 31 32 31 32 31
11 12 14 16 19 21 24 24 25 24 26 28 28 30 30 32 31 30 30 30 32 32 34 37 37 35 35 33 32 34 34 35
11 14 16 19 20 25 28 29 30 31 31 31 33 33 33 34 34 34 34 35 36 38 41 42 38 38 39 39 38 36 36 37
15 18 19 21 25 28 29 31 33 35 35 35 37 38 39 39 37 37 39 40 41 41 43 40 38 36 35 35 36 37 38 39
20 20 22 25 28 29 30 32 35 36 38 38 39 39 40 40 41 43 43 42 42 41 40 40 39 38 37 36 36 38 39 38
21 22 24 29 31 30 33 35 37 39 41 42 43 42 44 44 45 45 44 42 42 43 43 44 44 45 45 45 45 43 43 46
26 29 31 32 35 35 38 41 42 44 45 48 46 44 48 46 45 45 44 44 46 47 49 50 50 50 50 50 50 50 50 48
31 36 37 36 40 40 42 44 45 48 50 51 49 49 48 46 48 48 49 52 54 55 56 56 58 57 57 57 58 58 59 59
34 39 42 42 43 44 46 48 50 52 52 53 50 51 50 51 53 55 56 57 58 61 62 62 63 62 62 63 63 65 67 67
37 41 42 46 45 48 52 53 55 55 55 55 53 54 53 55 56 58 60 63 65 67 67 66 66 67 68 66 66 66 67 68
41 44 47 48 49 53 53 54 55 54 54 55 57 58 57 59 61 64 66 67 68 68 69 69 69 69 70 72 71 69 68 68
45 48 48 48 52 55 54 53 52 53 56 58 59 61 65 66 69 69 69 70 71 72 73 74 75 72 72 74 76 76 75 69
47 48 50 50 52 52 52 51 53 56 58 60 63 65 66 68 70 71 73 74 75 75 74 71 71 72 72 74 75 76 76 76
47 50 50 50 48 48 51 53 54 58 61 63 64 66 69 71 71 73 74 74 75 77 78 78 77 79 77 77 77 78 81 84
47 49 47 50 50 50 53 56 57 59 63 66 69 70 72 72 73 73 75 76 78 79 81 82 82 81 81 83 83 82 81 87
44 43 45 48 51 56 59 60 63 66 69 71 71 71 73 75 74 75 78 80 81 81 82 83 84 84 84 84 85 86 87 87
44 45 49 53 57 60 63 66 68 71 74 75 73 73 73 74 78 82 84 82 81 83 83 83 83 83 80 78 77 78 77 75

GFSFLT2_500_spd_036.txt.gz
Wind_Speed
10 8 4 1 1 3 5 7 9 11 13 15 16 18 17 17 18 19 19 20 22 22 22 22 21 21 20 22 23 24 24 24
7 3 2 4 5 7 9 10 12 13 15 18 18 21 20 21 21 22 22 22 24 24 24 24 23 21 20 20 21 24 25 27
4 3 6 8 9 10 11 12 14 16 18 20 21 22 24 24 23 24 25 26 26 27 26 25 24 25 25 26 26 27 30 29
6 8 10 10 10 12 13 14 17 20 22 22 22 23 24 26 27 28 28 27 28 29 29 28 28 29 29 30 31 32 32 31
9 10 12 14 14 14 14 17 21 25 27 27 24 25 26 28 29 31 32 32 32 33 33 33 34 34 34 33 33 31 29 31
11 13 15 17 16 16 18 21 24 26 27 29 30 30 31 34 35 36 37 37 37 36 35 35 35 34 32 32 31 30 29 29
17 17 18 20 19 20 22 24 26 27 28 29 30 31 36 40 41 41 41 40 39 37 34 32 32 33 34 32 32 33 36 37
15 22 24 21 24 27 26 28 32 29 32 33 33 37 42 42 43 42 41 39 36 35 35 35 35 36 37 39 39 39 39 41
17 20 25 28 26 21 26 34 36 37 37 39 41 43 43 43 42 43 41 39 39 40 41 41 41 42 44 45 46 47 48 49
24 22 22 24 25 24 31 34 36 40 41 42 42 45 43 42 41 41 41 42 44 45 46 46 48 49 49 51 52 54 55 55
30 27 26 29 32 35 35 38 40 38 42 44 47 45 41 39 41 44 45 46 48 49 51 53 54 54 56 57 58 58 59 60
28 30 31 33 38 43 46 44 45 45 48 49 48 46 45 45 45 47 50 51 53 54 57 59 61 62 63 63 64 65 66 67
31 34 39 43 46 49 47 50 49 48 52 51 49 48 48 50 53 55 57 59 59 61 63 65 67 69 71 72 73 73 73 74
36 42 45 47 50 51 52 53 53 54 53 52 52 53 56 58 60 62 63 65 67 68 70 71 74 76 77 79 79 78 78 78
41 44 46 48 50 51 52 52 52 51 51 51 54 56 59 61 63 67 70 73 76 77 78 80 82 84 84 84 85 84 83 80
40 43 46 48 50 51 52 50 48 49 52 55 57 60 62 67 70 73 77 79 80 82 84 86 87 87 85 83 86 88 88 82
40 44 47 47 48 47 46 46 47 49 52 55 58 62 65 69 73 76 78 80 82 83 82 83 85 84 81 86 88 89 91 90
46 49 49 48 45 44 45 45 46 51 56 63 67 70 74 77 80 81 82 81 80 80 82 83 85 85 87 90 88 87 87 88
47 46 45 44 43 43 46 50 55 61 66 70 74 78 81 83 84 84 82 82 82 81 82 84 88 93 94 89 86 86 85 85
37 38 37 37 40 46 50 55 61 67 72 75 79 83 86 87 87 86 85 84 82 82 83 85 88 90 87 84 79 78 77 77

GFSFLT2_500_spd_039.txt.gz
Wind_Speed
14 12 8 7 5 6 6 8 10 13 14 16 17 19 19 21 22 23 25 27 27 28 28 28 28 28 28 27 25 24 24 25
12 8 7 7 7 8 10 12 14 16 18 18 20 21 22 23 24 24 24 25 26 28 28 29 29 29 27 28 28 27 26 26
9 9 9 8 10 12 14 16 18 19 20 22 23 23 24 24 23 24 25 27 28 29 29 29 29 29 29 29 30 32 32 32
9 10 11 12 13 15 17 19 21 23 23 25 24 24 25 27 27 27 29 29 31 32 32 32 33 33 33 32 33 33 33 32
10 12 13 16 17 18 21 24 23 24 27 26 26 27 26 28 28 29 31 32 34 34 33 33 32 32 32 32 33 33 32 31
10 13 16 18 19 21 25 24 24 28 30 29 27 28 28 28 32 36 35 35 35 34 33 31 30 30 31 31 31 31 33 33
15 15 18 20 22 24 23 26 24 27 29 28 29 29 30 36 38 38 38 35 34 34 33 31 31 30 31 32 32 33 35 37
17 18 20 22 23 24 24 22 27 27 30 29 33 35 37 37 40 42 39 36 34 33 33 34 34 34 35 36 36 37 38 40
19 19 22 23 24 21 23 21 28 32 37 37 34 37 38 40 43 42 39 37 36 37 37 37 37 38 39 40 42 43 44 46
21 21 24 23 26 29 28 29 32 39 38 40 42 42 43 43 42 41 41 40 40 41 42 43 44 45 45 47 48 50 51 52
21 22 18 25 25 29 33 42 44 44 44 44 45 44 47 43 40 40 41 43 45 45 46 47 48 49 50 52 54 55 57 58
24 24 26 29 36 42 43 46 46 47 47 47 52 50 47 44 43 43 43 45 48 48 51 54 55 57 59 60 61 63 64 65
26 29 35 43 45 48 49 48 48 51 54 53 54 50 48 48 47 49 52 54 57 60 62 63 65 67 68 68 69 70 70 72
31 36 40 43 46 49 52 54 55 56 56 56 52 51 51 51 54 57 61 65 67 69 72 74 76 76 77 76 75 74 75 77
36 42 47 50 52 53 54 56 57 57 56 53 52 51 52 57 61 67 71 73 74 77 79 82 83 84 85 86 85 83 83 81
38 40 43 47 50 52 57 59 59 57 54 54 54 57 61 65 69 73 76 79 81 83 84 86 87 87 87 87 88 89 88 85
40 40 44 46 51 56 57 55 53 51 51 52 56 59 64 69 73 77 80 82 84 86 86 85 85 85 86 86 87 88 90 90
40 43 45 50 52 50 49 49 48 49 54 57 61 66 70 74 78 81 84 86 87 87 87 86 86 86 88 89 91 91 92 95
37 40 43 48 45 42 42 46 51 55 59 63 67 71 77 80 84 87 90 90 88 87 86 86 87 89 91 92 92 92 92 93
39 40 40 37 37 42 45 49 54 58 63 68 74 79 82 86 89 91 90 88 87 87 88 90 90 90 88 87 85 84 83 82

GFSFLT2_500_spd_042.txt.gz
Wind_Speed
11 13 11 10 9 8 8 10 12 14 15 16 19 21 23 24 24 24 25 24 24 24 26 28 29 29 31 31 31 29 27 26
12 11 11 9 10 9 11 13 16 16 17 20 22 24 24 25 26 25 24 23 25 26 27 28 28 28 29 30 30 30 29 30
12 11 10 10 11 13 15 17 18 20 21 21 23 27 30 30 28 26 26 26 28 29 31 31 31 30 29 30 30 30 31 32
10 9 11 12 14 16 18 19 21 23 24 24 26 30 30 29 29 28 27 27 32 34 34 34 34 33 32 32 32 32 32 32
9 11 13 15 17 19 20 21 24 25 25 26 27 29 28 29 30 30 29 36 36 35 35 34 33 32 31 31 31 30 30 29
10 13 15 17 19 21 22 24 26 27 26 24 27 28 29 30 32 35 36 35 38 38 36 34 33 31 29 29 30 31 31 31
12 15 18 20 23 25 26 26 27 26 26 25 28 29 31 35 36 37 39 39 39 39 36 33 31 31 30 29 31 32 33 33
18 19 21 23 26 27 28 28 29 26 22 25 33 32 33 34 38 41 44 43 41 38 36 35 33 31 31 32 34 35 35 36
20 23 22 24 26 28 30 30 27 27 26 31 35 36 37 40 40 44 46 44 41 39 37 36 37 38 37 37 38 40 42 44
23 24 20 23 29 25 30 24 25 30 35 39 40 39 42 42 47 47 47 45 42 40 41 41 42 43 43 45 47 48 48 50
18 19 21 25 29 29 31 28 26 36 37 45 47 48 49 49 48 47 44 42 41 40 41 43 47 50 52 54 55 57 59 60
21 18 21 31 28 37 42 44 46 45 44 52 52 53 54 53 51 47 42 39 41 45 50 54 56 58 59 61 64 67 68 69
22 23 29 37 40 44 50 53 54 57 55 54 55 56 55 54 50 46 44 46 50 54 58 63 65 66 68 70 72 73 74 75
28 33 37 41 44 48 48 51 54 55 56 58 58 56 54 50 48 50 53 58 62 66 69 72 75 78 79 80 80 81 81 82
38 42 42 44 47 48 48 54 55 56 56 55 54 52 50 52 57 62 64 68 72 75 78 81 82 82 83 85 86 86 85 83
40 41 45 49 51 49 53 57 55 53 53 50 49 51 55 59 63 66 69 74 77 81 84 84 85 86 87 88 89 91 91 90
44 48 50 45 46 48 50 55 53 51 50 51 54 57 60 63 67 71 74 77 80 82 84 87 89 90 91 90 88 88 90 90
44 42 45 37 41 45 49 52 47 47 51 55 58 61 64 67 70 74 79 82 85 88 90 91 92 93 93 92 91 90 90 92
48 60 42 38 43 47 46 45 47 50 54 58 60 64 67 72 78 81 85 89 92 93 93 95 95 95 94 93 93 90 88 86
48 44 38 41 40 41 43 46 50 54 57 61 66 71 76 81 85 88 91 93 94 95 96 97 97 97 94 86 78 72 71 71

GFSFLT2_500_spd_045.txt.gz
Wind_Speed
10 9 9 9 9 10 10 11 12 13 14 16 18 22 22 24 26 27 27 26 25 26 26 27 27 27 27 26 26 26 25 24
8 11 11 10 10 10 12 14 15 16 18 19 21 23 24 26 28 28 27 26 27 28 27 29 30 31 30 29 28 29 30 29
11 12 10 9 10 12 15 17 18 19 21 22 23 24 25 27 28 27 25 26 26 28 32 36 36 35 34 32 31 31 31 30
11 9 8 10 13 16 18 19 21 22 23 23 25 25 27 28 30 29 29 28 28 34 36 35 36 37 35 35 33 31 30 30
7 8 12 14 17 19 21 23 24 25 26 27 28 26 25 26 30 32 32 34 34 35 36 37 37 36 35 34 33 32 31 30
8 12 15 17 19 21 24 26 27 29 29 28 28 27 27 28 31 34 36 35 37 39 40 40 38 36 33 31 31 31 32 33
10 13 17 18 21 24 26 28 30 32 33 31 30 28 26 31 34 36 36 40 40 43 43 44 41 37 34 32 31 31 32 32
13 16 19 20 23 27 29 31 30 34 35 34 32 24 26 32 36 35 39 42 46 46 44 44 42 40 36 35 35 36 36 36
18 21 23 24 28 31 33 33 34 38 36 24 27 29 32 38 41 41 43 44 46 46 46 44 41 39 37 36 38 40 41 42
20 23 26 27 29 32 33 32 28 27 29 23 31 47 47 48 44 45 47 47 46 45 42 42 39 38 40 43 46 48 49 50
20 21 23 24 29 35 37 25 28 34 38 42 39 47 48 48 50 50 46 44 43 42 41 40 42 44 49 51 55 58 58 58
21 23 23 25 37 33 38 46 45 43 41 41 44 47 48 49 49 46 42 40 39 40 42 45 49 54 57 60 63 66 70 72
26 25 35 32 31 45 51 49 50 51 51 51 53 52 49 46 43 40 41 44 46 49 52 55 59 63 66 70 73 75 76 77
22 25 37 42 46 47 49 51 52 51 52 53 54 51 47 45 46 49 52 54 57 60 63 66 69 70 71 73 76 78 79 81
35 33 36 43 48 47 51 54 57 53 51 53 53 49 46 48 52 55 58 60 63 65 67 69 71 73 76 79 82 83 83 84
36 38 44 47 47 47 49 51 54 50 50 53 49 47 51 53 55 58 59 61 64 68 73 77 79 82 84 87 89 91 93 96
37 41 43 45 45 47 46 47 47 50 50 48 50 52 56 57 58 59 65 69 74 78 82 86 89 92 94 96 96 99 102 103
36 39 47 52 57 53 43 43 48 48 48 51 54 56 59 61 65 69 74 79 83 87 90 94 98 99 100 99 100 100 99 98
42 46 49 50 49 47 46 48 47 49 52 56 59 62 64 68 73 78 81 86 90 93 96 98 98 100 103 103 101 94 88 82
36 38 41 43 44 47 47 49 51 53 57 61 63 65 69 75 80 84 88 91 93 95 97 99 102 104 103 94 83 75 65 61

GFSFLT2_500_spd_048.txt.gz
Wind_Speed
12 11 12 14 15 11 10 8 11 13 14 16 17 18 21 23 25 25 25 25 25 24 25 25 25 26 29 29 29 29 29 29
13 12 14 14 12 10 10 12 14 17 18 18 18 21 25 26 26 26 26 26 26 26 25 23 27 31 29 29 30 31 31 31
13 14 15 13 11 11 13 16 18 20 20 20 21 25 27 28 27 27 27 27 28 28 28 29 31 32 33 34 33 33 32 31
13 13 12 10 12 14 16 19 21 22 23 23 26 28 31 30 29 26 26 29 31 32 33 31 34 35 37 37 37 36 34 33
11 9 9 12 15 17 19 21 22 24 25 27 30 32 32 31 31 30 30 31 33 34 34 35 35 37 38 39 38 38 36 35
8 10 11 15 17 19 21 23 23 25 27 30 34 35 35 35 31 29 29 32 35 36 37 39 40 40 38 39 39 38 38 36
10 11 13 15 17 20 24 25 27 29 31 34 36 36 38 42 41 32 27 36 38 40 43 42 42 41 40 40 41 40 39 38
12 12 14 18 20 23 26 29 32 34 35 36 34 35 36 32 35 35 38 36 39 41 43 45 45 43 42 41 40 40 41 39
15 15 18 22 24 27 30 33 37 37 39 39 33 34 31 43 43 40 44 43 44 44 43 43 42 42 42 41 39 39 40 40
16 18 23 24 26 27 30 38 39 36 24 32 37 25 38 36 40 45 48 49 46 43 41 40 40 40 40 40 40 42 44 46
17 19 22 27 28 32 32 38 32 39 47 39 35 35 40 43 46 46 44 42 40 37 35 36 39 41 42 44 46 48 50 53
22 24 26 31 29 42 34 36 49 47 41 42 44 45 45 44 46 46 42 38 37 40 41 42 44 46 48 51 53 55 57 59
24 27 30 32 37 46 41 43 46 47 46 46 47 48 48 47 49 46 41 43 44 46 51 53 55 57 59 60 62 64 65 67
28 30 33 37 41 43 45 48 48 49 52 51 53 52 51 54 53 48 50 52 54 55 56 57 59 64 66 68 71 75 79 80
31 34 37 39 42 45 49 51 52 53 54 57 51 50 53 54 51 52 54 56 57 57 60 65 68 72 75 78 81 83 86 88
31 35 39 41 44 48 51 52 57 58 59 50 48 52 51 51 54 56 57 59 60 64 68 73 77 79 83 87 89 91 92 93
26 28 32 36 41 46 48 47 47 48 49 49 52 52 54 57 59 62 63 65 68 73 78 81 83 87 90 93 96 97 100 102
26 29 33 36 39 43 45 47 47 49 49 51 53 57 59 62 64 66 68 72 77 80 82 87 91 94 97 99 100 101 103 105
26 29 31 34 38 42 44 46 47 50 52 56 57 60 63 65 67 70 75 78 80 84 89 92 95 97 98 99 102 102 96 87
30 33 34 35 38 41 44 47 51 52 53 56 59 62 65 68 71 73 75 80 85 89 91 94 96 97 100 102 96 84 73 65

GFSFLT2_500_spd_054.txt.gz
Wind_Speed
39 34 19 19 16 7 8 10 13 12 12 12 12 14 17 20 23 25 26 27 28 29 30 27 26 26 26 25 26 26 27 27
21 22 29 15 5 5 9 12 11 10 13 13 16 18 21 23 26 27 27 28 29 30 31 32 31 29 27 27 27 29 32 34
11 10 4 6 5 9 9 12 10 11 15 18 19 21 23 26 28 28 29 30 29 29 31 34 32 27 25 25 32 33 35 35
8 7 4 5 10 10 7 7 11 16 19 21 21 25 27 29 31 31 30 30 27 29 30 32 32 29 38 36 37 36 38 39
5 3 5 7 5 4 8 13 16 20 21 23 25 28 32 31 31 34 34 30 32 22 29 26 29 34 37 42 43 41 41 42
10 8 7 7 9 11 13 16 18 21 24 25 27 29 31 35 30 25 35 37 29 28 39 42 32 32 36 41 43 44 45 45
9 9 9 9 9 11 14 17 21 23 27 31 33 33 36 29 30 27 32 30 27 35 44 49 49 42 43 43 47 45 46 46
4 7 8 8 10 13 17 20 22 24 30 32 37 41 36 28 28 41 36 33 32 36 40 44 48 45 45 47 46 45 42 42
7 7 9 11 14 17 22 24 27 24 31 31 39 32 41 30 35 36 35 38 36 40 45 47 46 47 48 46 44 39 39 39
8 10 15 15 18 22 23 26 31 24 32 40 33 44 42 39 36 36 40 43 44 43 42 43 45 44 42 41 41 42 44 44
10 14 16 18 21 25 30 28 33 36 39 39 42 42 43 43 43 43 43 41 41 39 41 41 40 40 41 42 43 45 47 49
15 17 18 22 25 28 31 33 34 33 34 35 36 37 40 39 40 40 40 42 42 43 42 43 43 44 45 47 48 48 50 53
18 19 22 24 25 27 27 28 29 31 33 34 35 37 38 40 44 44 41 42 45 47 47 47 48 50 51 52 52 54 55 59
19 19 21 23 23 23 25 26 29 31 33 35 37 39 41 44 45 47 50 51 53 53 53 53 54 55 57 58 59 58 60 63
17 19 18 19 20 22 25 28 31 33 36 37 41 42 44 47 49 51 53 55 55 56 57 57 59 59 61 62 64 65 67 70
15 15 16 19 22 25 30 33 36 39 41 43 44 45 47 49 52 54 55 56 58 59 60 60 62 63 64 68 72 76 79 79
15 16 19 23 27 29 33 37 39 42 45 47 49 50 51 51 52 54 56 58 60 61 61 62 65 67 71 75 79 84 88 92
18 21 23 26 30 33 36 40 43 45 47 50 51 53 55 57 59 60 62 64 64 65 66 67 72 76 80 83 88 92 95 98
22 25 28 31 34 38 41 44 47 49 52 53 55 56 58 59 61 63 64 65 66 68 70 73 77 82 86 88 91 93 96 96
29 31 34 37 41 44 47 49 52 52 53 55 56 57 59 60 61 63 64 65 67 71 75 79 83 87 89 90 91 92 94 91

GFSFLT2_500_spd_057.txt.gz
Wind_Speed
27 38 38 41 35 22 13 9 10 12 14 13 11 12 16 18 22 22 23 25 26 26 26 23 23 24 25 25 23 27 24 21
36 42 42 39 24 20 16 12 12 15 8 9 12 16 20 22 24 25 27 28 29 30 28 24 25 25 24 20 20 24 31 30
34 34 17 11 12 13 12 9 8 7 10 14 17 19 21 23 27 28 28 30 32 33 28 27 25 20 24 24 30 34 37 37
19 17 14 14 17 16 15 15 14 13 13 13 17 20 23 26 27 28 31 21 26 23 24 27 26 25 30 34 39 30 34 37
17 21 19 15 13 13 13 10 10 10 12 15 18 19 25 26 28 30 26 17 28 25 24 32 33 34 38 39 40 41 39 39
15 13 13 13 11 8 5 7 10 11 14 15 19 22 23 26 27 29 28 28 33 32 37 29 35 38 37 37 40 41 43 44
13 10 7 4 5 5 7 9 11 15 17 19 20 23 27 36 24 35 25 26 36 33 34 35 35 38 42 45 48 48 45 45
7 5 5 6 4 7 10 14 16 16 18 21 24 27 35 25 38 36 33 31 28 33 35 37 40 41 43 43 43 44 43 42
3 2 3 5 7 10 11 18 17 23 22 22 28 34 33 35 34 34 32 32 31 34 35 34 35 37 38 40 40 41 42 43
2 6 6 8 11 14 17 20 23 22 27 28 28 28 28 30 30 29 31 32 34 35 36 36 37 38 38 39 41 42 42 44
7 6 8 10 14 19 21 23 24 24 25 23 23 24 24 25 28 30 32 34 36 38 38 39 41 41 41 43 43 43 44 46
10 10 11 14 17 20 20 21 20 20 22 25 27 28 30 32 32 34 37 39 42 43 44 44 45 45 46 46 45 46 47 50
15 17 16 17 16 18 15 16 19 22 25 28 30 32 34 36 36 38 39 42 44 46 48 48 49 51 52 50 50 50 51 52
14 13 16 16 14 14 17 20 23 26 28 30 33 36 38 40 42 44 45 47 48 50 51 52 53 54 55 54 52 49 52 55
12 11 9 10 13 17 21 23 25 28 31 34 38 41 42 45 46 47 48 50 52 53 54 55 56 56 56 56 55 56 57 60
9 11 13 16 17 21 24 26 30 33 37 40 43 45 46 49 49 50 51 53 54 55 56 56 56 57 57 58 61 64 67 69
12 13 17 21 23 27 30 33 37 41 44 46 48 50 51 52 53 53 52 53 55 57 58 58 57 57 61 64 68 72 77 80
15 19 23 26 28 32 36 40 44 47 50 51 54 55 56 57 58 58 58 59 61 62 63 62 61 63 68 72 77 82 86 90
20 23 26 30 34 37 40 43 46 49 51 53 54 54 55 57 57 59 61 62 63 63 63 63 66 69 73 78 84 88 90 94
27 29 31 33 37 41 44 46 49 50 52 55 57 57 57 57 59 61 62 62 64 64 64 66 70 75 80 84 90 90 91 90

GFSFLT2_500_spd_060.txt.gz
Wind_Speed
23 34 21 26 42 38 31 20 20 15 15 18 14 13 14 16 17 18 23 25 27 29 29 27 25 25 26 25 31 31 24 19
23 29 42 43 38 36 21 13 11 12 11 13 14 13 16 18 20 22 26 26 28 29 26 29 26 24 26 21 26 29 28 29
24 36 42 42 47 37 14 13 13 16 14 9 11 16 18 21 20 22 23 26 29 25 25 23 19 33 26 25 27 29 35 35
30 30 32 19 14 14 17 17 16 12 10 12 12 13 17 19 21 22 23 24 26 23 17 21 31 34 33 32 36 38 38 39
28 27 12 11 21 18 17 17 13 10 10 11 11 13 17 19 22 24 27 25 25 24 28 29 32 30 32 34 39 40 44 47
19 21 24 21 19 17 14 12 9 6 7 11 15 19 20 18 22 31 20 27 30 23 29 32 31 31 33 37 38 40 44 46
21 20 18 14 11 7 2 1 6 8 10 13 16 19 23 26 30 27 27 28 24 24 25 26 29 32 34 35 38 40 40 41
15 13 12 9 4 4 4 6 9 12 14 18 19 22 24 26 25 25 25 24 24 25 28 30 32 35 37 38 39 40 41 42
10 6 5 4 3 3 6 10 12 12 18 19 21 21 20 19 20 20 22 25 26 28 30 33 35 37 38 39 40 40 41 42
5 5 4 5 7 8 9 13 15 18 17 17 16 15 16 18 22 24 25 29 31 31 33 35 36 38 41 42 43 44 44 44
5 4 6 7 7 10 13 15 16 14 13 13 16 19 22 25 27 27 30 32 34 36 37 39 41 42 43 45 46 46 47 48
0 2 8 9 11 14 16 14 10 12 14 18 21 23 25 28 30 32 35 37 39 40 42 44 45 46 47 48 48 49 49 48
11 11 10 11 12 13 10 10 12 17 19 22 24 26 30 34 37 39 41 43 44 45 46 47 48 49 50 51 51 51 51 51
10 12 11 12 10 9 11 14 17 21 23 27 31 35 38 40 42 43 45 47 49 50 51 51 52 52 53 53 54 53 51 51
8 11 8 7 10 13 15 18 22 26 29 33 37 40 42 44 45 47 48 50 52 54 54 55 55 56 56 56 57 55 52 52
6 6 7 10 14 18 21 24 27 31 35 38 41 44 45 46 48 50 51 53 54 56 56 56 56 56 56 57 57 56 57 58
7 8 12 15 19 23 26 29 33 37 40 42 44 46 47 48 50 52 52 54 55 55 56 57 59 59 60 58 59 62 65 68
11 14 17 21 25 29 32 34 37 40 43 46 48 50 51 53 54 55 54 56 57 58 59 62 63 64 63 62 64 68 72 76
17 20 23 27 30 34 38 40 42 44 47 50 53 54 56 57 58 60 62 62 62 63 65 66 67 66 65 68 71 75 79 84
21 24 26 30 34 39 43 45 46 48 51 54 55 56 57 58 59 59 60 62 64 65 67 68 67 66 69 73 76 79 84 87

GFSFLT2_500_spd_066.txt.gz
Wind_Speed
26 30 29 30 26 37 38 37 32 36 36 33 17 20 14 15 14 14 17 18 21 22 21 22 25 29 27 26 21 22 24 27
20 30 33 47 29 32 44 37 34 35 28 21 18 14 14 12 17 14 17 21 23 20 24 28 29 29 26 25 27 26 31 32
26 35 44 33 23 31 36 32 34 31 23 17 14 14 14 14 14 17 21 21 20 24 27 30 27 27 30 30 32 34 35 33
27 43 42 38 33 35 39 38 26 18 18 15 13 11 13 15 18 18 20 22 22 25 28 23 27 28 27 26 26 28 32 34
38 32 44 30 27 28 39 27 18 16 15 16 14 12 16 17 20 21 20 23 26 28 23 24 24 27 28 29 30 32 33 33
26 37 34 25 23 23 16 20 20 12 7 8 11 13 17 19 19 21 22 23 21 21 21 24 26 28 29 31 31 32 34 36
23 29 28 24 22 20 18 16 12 10 11 13 16 15 13 18 20 20 17 17 19 23 24 25 27 29 31 33 35 37 39 40
18 22 21 17 18 19 16 15 15 13 11 11 13 15 17 18 15 15 18 20 22 24 26 28 30 33 35 38 39 41 43 43
15 15 14 15 15 16 16 13 10 8 6 11 13 15 12 11 14 18 19 21 24 27 30 33 35 38 40 42 44 45 46 46
17 17 16 12 12 9 10 14 10 7 9 11 9 8 10 13 17 19 21 26 29 33 36 38 40 42 44 45 47 49 49 49
15 15 17 18 18 15 12 10 8 8 8 7 8 12 13 17 19 24 28 30 34 37 40 41 43 45 47 48 50 52 52 52
16 15 14 11 10 9 9 8 7 6 7 9 13 15 17 20 25 29 32 35 38 41 43 45 46 48 50 51 53 53 53 53
8 9 8 8 8 7 7 7 7 9 12 14 16 19 23 27 30 34 37 40 43 46 47 48 49 50 52 53 54 54 53 53
11 9 9 9 10 8 7 8 9 12 15 18 21 24 28 31 35 38 40 44 47 49 50 51 52 54 55 55 55 55 55 56
8 9 10 9 8 8 9 10 12 15 18 22 26 30 33 36 39 41 44 47 49 50 53 55 55 56 56 56 57 57 58 59
11 12 9 8 10 11 12 13 16 19 24 27 31 35 38 40 44 46 48 50 48 50 52 54 56 59 59 59 60 61 62 61
11 12 12 11 13 15 16 18 20 24 28 32 36 39 42 46 48 50 51 51 50 57 59 61 60 60 61 61 62 63 64 65
11 10 13 12 14 19 20 22 25 31 32 36 40 43 46 49 50 49 50 52 54 60 65 67 65 64 63 64 66 68 69 70
14 12 14 14 16 19 23 27 32 33 36 40 44 47 49 49 52 51 52 58 60 64 68 69 66 66 67 68 70 72 74 76
14 10 14 16 20 24 26 32 34 38 43 45 48 49 48 50 51 47 57 61 65 68 68 68 69 69 70 72 73 76 79 82

GFSFLT2_500_spd_069.txt.gz
Wind_Speed
24 22 24 29 30 27 25 26 26 32 29 26 32 25 18 20 18 18 14 14 13 17 21 20 22 24 27 22 20 22 23 24
24 27 28 29 34 28 30 31 29 35 30 26 24 17 21 18 13 13 12 14 16 22 21 24 25 27 25 25 24 23 24 25
29 44 31 49 44 40 28 31 40 33 29 26 24 24 20 12 14 8 11 15 21 23 25 26 26 25 21 20 22 23 24 26
31 26 32 35 48 37 30 36 38 36 29 26 17 15 15 16 9 14 17 20 21 19 25 24 20 19 21 23 24 26 26 27
34 35 39 33 39 42 42 38 35 29 21 23 18 14 9 13 16 17 17 19 22 23 20 16 19 21 23 25 26 28 29 31
34 34 37 23 29 37 41 38 22 19 18 18 12 9 12 16 16 16 16 21 19 14 17 21 22 23 25 27 29 31 32 35
39 27 35 32 35 29 21 19 23 21 15 12 13 17 17 16 15 17 16 12 14 17 19 21 25 27 28 30 32 35 36 38
23 20 24 27 26 21 21 21 17 14 14 15 17 16 16 14 14 13 11 15 18 18 21 25 28 31 32 34 36 38 40 41
13 18 33 35 14 16 16 15 15 16 14 13 10 13 14 13 10 11 15 18 20 23 26 29 31 34 36 37 39 41 43 44
14 12 12 15 15 14 16 15 15 13 12 12 14 12 11 10 12 15 18 20 25 29 30 33 36 38 41 42 44 46 48 49
14 11 12 12 13 13 16 15 14 12 12 13 12 9 11 13 16 19 22 26 29 32 34 37 39 42 43 45 47 49 50 51
13 12 13 15 17 16 14 15 15 14 12 12 11 11 13 17 20 24 28 30 33 35 38 40 43 44 46 48 49 50 51 50
13 13 14 15 15 17 17 16 15 14 13 11 11 14 18 21 25 28 31 35 37 39 42 44 45 45 45 48 49 49 49 50
16 16 16 17 17 17 17 16 15 14 12 12 14 18 22 25 28 32 35 38 40 43 45 48 50 48 52 54 54 53 52 53
14 13 13 12 14 15 15 15 15 14 13 15 17 22 26 29 33 35 38 41 43 46 46 49 49 53 55 57 60 59 59 58
10 11 12 14 15 13 14 15 18 19 15 18 21 25 30 34 37 39 41 44 45 49 48 48 49 52 57 60 62 61 61 61
13 13 13 13 16 16 17 18 21 18 16 23 25 30 34 37 40 43 44 44 49 49 48 52 56 59 60 62 63 63 63 64
14 15 16 15 17 19 19 22 24 18 22 27 28 34 39 42 43 43 46 49 52 52 53 55 61 64 63 64 65 66 67 67
17 18 18 18 21 19 21 24 25 24 27 32 31 41 42 43 41 44 48 53 49 53 58 62 66 66 66 66 67 68 70 72
20 21 24 18 21 20 22 24 27 27 34 34 40 44 43 42 45 48 52 50 53 62 60 61 64 66 67 68 70 71 74 78

GFSFLT2_500_spd_072.txt.gz
Wind_Speed
23 24 26 26 26 26 30 32 27 19 19 24 22 28 28 25 25 23 22 17 15 11 13 15 17 19 22 24 21 19 17 17
21 25 31 35 28 29 30 35 28 26 25 25 26 31 28 24 27 24 23 14 12 14 18 19 21 23 22 20 16 17 19 19
23 24 27 32 35 40 35 35 27 22 32 32 28 33 27 27 27 25 15 11 16 18 18 19 19 20 14 13 18 19 20 21
26 31 39 42 55 48 51 50 43 29 39 39 31 31 22 23 17 11 13 15 17 18 19 21 14 13 16 17 18 20 21 23
29 31 34 33 33 37 26 25 36 33 34 33 33 21 19 18 14 12 14 17 18 18 18 12 13 15 17 19 21 23 25 26
35 35 38 38 35 34 42 35 36 37 39 34 18 17 15 12 11 14 15 18 16 16 11 12 14 16 20 23 25 27 28 30
38 43 38 35 40 44 46 42 43 37 23 21 21 17 14 14 15 14 17 17 13 11 14 15 18 21 24 28 30 32 33 35
27 41 35 19 20 25 31 31 25 25 24 18 14 12 15 14 17 16 15 11 12 14 17 19 23 26 29 32 34 34 35 38
28 22 23 21 27 30 30 22 22 19 17 15 15 17 17 18 14 13 11 12 16 18 20 24 27 29 33 35 37 38 39 41
11 12 21 23 23 18 17 16 15 12 14 16 17 16 16 14 11 11 14 16 18 22 25 28 31 34 35 37 38 39 40 42
15 18 16 12 11 12 14 13 14 15 17 15 15 15 13 12 12 14 16 19 22 27 30 31 34 36 38 39 42 43 43 47
12 10 11 11 11 12 13 14 15 15 15 15 18 13 12 12 15 17 20 25 28 31 33 34 37 39 40 42 44 43 46 48
11 10 11 11 12 13 15 17 17 17 17 17 14 12 12 16 19 22 25 28 31 34 35 38 39 41 42 42 41 43 46 50
12 13 13 13 14 16 17 19 19 19 18 18 15 14 16 19 22 25 28 32 33 36 37 38 41 43 45 45 46 50 50 51
12 13 13 15 16 16 16 18 19 20 20 18 17 17 20 23 25 27 31 34 36 36 37 41 44 44 44 47 51 54 57 59
12 13 15 16 16 17 18 18 19 19 21 23 21 19 23 28 29 31 34 37 37 36 39 44 42 47 49 53 56 59 62 62
13 13 15 16 17 19 19 18 18 21 25 25 27 22 27 29 30 35 39 40 37 41 45 47 48 53 56 58 60 62 63 64
15 16 17 17 18 22 23 22 23 25 28 27 20 25 30 30 34 40 42 36 38 45 49 53 51 59 64 63 63 65 67 68
18 19 20 20 20 23 26 24 22 19 27 32 30 32 34 32 40 44 38 41 46 49 54 54 57 66 72 68 67 67 68 69
21 20 19 21 28 27 24 22 21 24 31 37 36 36 35 37 41 40 43 46 50 50 55 51 54 70 74 71 70 70 70 71

GFSFLT2_500_spd_075.txt.gz
Wind_Speed
35 35 32 25 26 27 28 27 26 26 23 23 22 29 30 23 27 28 27 27 20 17 13 13 15 15 17 19 18 13 11 14
33 27 25 24 27 30 27 25 24 27 31 30 24 27 30 25 26 29 27 24 20 17 15 17 17 19 17 18 10 12 14 15
15 18 23 25 29 36 35 31 25 27 26 26 30 29 26 26 33 27 24 16 15 13 17 17 17 17 14 11 13 13 14 16
22 22 23 26 36 40 44 45 38 37 43 41 37 31 28 28 31 17 24 18 19 16 16 16 17 13 12 14 14 16 16 18
23 26 32 26 40 23 38 30 36 22 29 49 41 33 32 26 16 14 17 18 16 15 15 17 14 13 14 15 17 18 21 22
27 28 29 27 29 31 30 30 31 34 26 40 37 35 29 22 16 16 15 15 14 15 16 15 13 14 17 18 21 23 25 25
29 29 31 31 37 31 36 33 33 39 33 36 42 25 21 19 18 15 14 15 16 17 12 14 14 16 20 22 25 28 30 32
30 28 27 40 39 33 29 35 38 36 41 49 32 24 20 15 13 14 15 17 17 13 14 14 16 21 24 27 30 32 34 36
31 38 40 46 44 39 30 23 34 42 25 26 24 16 13 14 16 17 17 15 14 14 14 16 21 24 28 31 33 35 36 36
28 27 23 24 35 36 29 30 38 28 26 19 15 13 12 14 14 15 14 14 14 15 18 22 25 28 31 34 35 37 38 39
19 13 23 18 15 17 20 16 15 16 14 13 9 12 13 16 16 15 15 15 15 18 23 26 30 32 34 37 38 38 40 41
9 20 14 11 11 13 15 10 10 10 9 10 12 16 18 17 16 15 16 17 19 23 26 30 32 35 37 38 38 40 42 42
14 17 11 11 10 10 9 9 10 11 12 14 17 18 15 17 17 16 18 20 23 26 29 33 35 37 39 39 41 39 39 42
5 6 6 3 3 6 10 12 14 14 16 17 17 17 19 18 19 21 21 24 26 30 33 35 37 36 38 41 42 45 47 48
3 4 5 7 8 10 12 15 16 18 17 18 19 21 21 23 23 24 26 27 29 33 34 36 38 38 40 45 48 49 51 55
7 8 9 9 12 15 16 18 18 18 18 19 22 24 27 26 25 27 30 31 32 36 36 35 35 40 45 47 50 53 59 61
10 11 12 15 16 17 18 20 22 20 20 21 22 26 35 35 27 30 29 32 36 38 33 35 38 43 48 54 59 63 65 69
14 14 15 17 19 20 22 23 24 25 21 23 27 27 30 33 27 32 35 37 37 36 36 39 43 45 50 57 60 63 67 72
16 17 18 19 21 23 24 26 26 27 27 26 21 27 33 32 33 36 38 40 40 39 42 42 43 46 53 61 64 69 68 70
17 19 20 18 19 20 20 31 28 28 20 28 30 31 34 39 41 42 42 41 43 45 49 49 46 47 58 64 68 72 71 72

GFSFLT2_500_spd_078.txt.gz
Wind_Speed
46 44 40 38 35 36 30 28 28 29 29 28 24 21 23 26 29 30 32 25 25 22 21 14 12 15 16 16 17 16 10 11
40 34 38 37 33 32 30 30 30 31 30 25 26 23 27 24 24 27 25 26 28 20 16 16 16 16 16 16 14 10 10 14
19 40 34 29 29 28 31 30 32 32 28 21 18 24 28 27 26 28 28 32 24 16 15 17 16 14 14 14 11 13 12 14
9 13 21 28 28 27 30 33 34 30 34 25 24 29 36 35 28 29 25 23 12 14 17 16 14 15 12 11 12 14 13 17
12 13 16 16 20 23 26 27 36 22 25 26 24 25 32 39 31 29 25 17 15 19 16 14 15 14 12 13 13 17 16 20
14 15 16 17 18 16 27 26 19 24 22 29 30 27 28 39 34 21 15 14 17 14 13 13 15 12 14 15 15 18 19 22
18 19 20 21 21 23 23 25 27 23 29 30 30 28 24 41 26 19 18 16 14 13 13 12 12 13 15 17 19 21 23 25
21 21 23 25 24 25 27 26 28 25 34 30 30 25 26 19 18 21 17 13 12 13 17 12 14 14 17 20 21 24 27 27
24 23 26 27 23 30 32 31 36 27 23 24 23 15 20 22 17 12 11 11 17 16 13 14 14 17 21 23 25 27 30 32
23 23 25 26 23 40 40 39 26 24 24 19 20 18 21 20 16 16 16 17 15 14 14 15 16 21 24 26 28 29 32 33
15 14 18 17 17 21 27 34 34 18 16 24 21 17 14 14 14 15 15 15 13 14 17 17 21 24 27 30 32 32 33 33
15 11 14 18 19 18 14 10 13 20 16 15 12 10 10 12 14 16 14 13 16 18 19 20 24 28 31 32 32 32 34 35
11 10 8 4 5 10 17 16 14 8 6 6 6 9 10 14 19 17 18 17 19 21 22 24 28 32 34 34 33 31 34 37
13 9 10 7 7 7 7 5 4 4 7 9 11 13 15 16 18 19 20 21 22 24 26 27 30 34 35 33 35 37 37 39
8 7 6 4 5 6 4 4 6 9 12 12 13 15 17 23 23 23 24 23 25 29 31 31 35 37 33 33 34 38 40 45
7 6 6 6 6 6 7 9 10 13 15 17 16 17 19 25 27 26 29 26 26 30 30 34 37 40 37 35 33 36 41 46
9 10 10 11 11 10 11 12 14 16 18 19 18 19 21 26 29 24 38 34 29 28 33 35 37 38 37 38 38 40 43 45
11 11 11 12 14 14 15 15 17 20 22 21 19 21 27 29 30 29 26 33 33 35 42 43 43 45 47 48 47 49 53 56
7 9 12 11 14 16 16 17 16 19 22 22 25 26 27 30 29 29 35 37 37 40 46 43 42 47 50 51 49 51 53 58
10 11 13 13 11 14 14 17 19 19 17 23 25 27 31 32 34 38 42 43 41 46 39 41 44 49 52 54 52 55 56 70

GFSFLT2_500_spd_081.txt.gz
Wind_Speed
31 37 31 42 41 37 32 30 28 25 28 28 27 26 23 21 20 20 24 27 27 24 21 22 19 19 16 17 10 11 7 7
49 37 44 43 42 34 30 30 33 28 28 27 28 27 25 21 23 20 24 27 26 22 22 27 14 15 16 16 10 10 5 7
21 36 38 53 42 37 32 31 32 29 30 29 27 23 22 28 22 25 23 22 20 25 27 13 19 18 17 13 10 9 9 9
21 5 44 39 34 30 28 28 28 24 28 28 25 28 14 16 22 24 26 24 24 15 14 17 18 16 13 13 8 9 11 10
18 28 24 29 27 27 20 36 29 19 31 28 21 31 25 17 21 23 27 31 17 16 16 18 17 14 14 13 10 10 13 13
6 11 8 5 4 3 9 15 24 13 14 16 16 15 16 21 21 23 30 20 16 18 17 17 15 14 12 11 12 11 16 17
9 8 9 8 12 9 12 10 12 16 17 20 21 22 22 19 20 23 11 18 19 17 15 15 13 12 13 13 14 14 17 19
10 11 11 15 15 11 13 20 15 16 22 23 22 23 21 17 17 15 25 22 17 16 15 14 13 14 15 15 16 17 18 20
11 10 14 15 16 15 17 20 33 27 25 20 20 19 11 14 17 25 25 17 16 14 14 14 15 17 16 18 18 21 21 23
14 14 16 17 18 16 16 16 26 31 25 19 19 15 10 16 24 19 17 13 14 13 15 16 17 18 19 20 21 24 25 26
13 12 13 13 11 10 17 17 19 23 25 27 13 13 21 23 19 16 14 12 15 17 17 18 20 20 20 22 24 25 28 29
13 10 10 9 9 8 13 15 17 22 23 13 18 18 19 19 19 17 15 16 18 18 19 20 21 22 23 25 28 31 32 30
14 14 10 4 3 4 2 5 16 17 14 17 14 13 13 11 10 13 15 17 18 18 20 20 23 26 28 30 30 31 31 31
10 5 5 14 13 10 13 14 12 14 11 7 6 6 7 10 17 17 18 18 19 19 22 25 26 30 31 34 34 34 32 31
16 14 12 9 7 8 8 6 5 5 4 5 6 7 10 14 13 18 17 19 24 24 26 28 29 27 31 35 36 37 38 38
11 10 9 7 6 5 5 2 1 2 5 7 7 11 15 18 18 21 24 26 29 31 33 33 27 28 34 36 41 38 40 44
5 5 7 6 6 6 4 4 5 7 8 11 13 13 15 18 19 22 28 27 30 31 31 38 40 40 43 44 47 47 46 46
1 2 3 4 3 3 3 4 4 4 6 11 13 15 18 20 23 24 27 30 28 30 34 34 35 37 43 44 43 41 48 49
7 7 7 8 9 8 7 7 5 9 13 14 12 14 16 20 21 24 27 31 33 37 39 40 41 44 41 41 45 47 51 50
8 8 9 9 11 11 10 11 12 11 12 15 14 15 19 21 25 29 30 33 37 37 40 44 44 42 40 42 45 47 52 57

GFSFLT2_500_spd_084.txt.gz
Wind_Speed
54 56 54 61 53 47 37 39 37 34 30 28 28 23 25 26 24 23 24 21 22 23 25 28 25 22 16 13 17 14 13 9
33 43 45 52 49 53 45 44 35 31 26 25 23 27 27 27 26 24 22 22 28 26 29 24 29 31 15 14 15 12 10 9
34 34 51 51 64 47 40 37 31 29 29 26 23 24 27 26 27 29 28 24 25 26 22 19 19 16 14 16 16 12 11 10
26 17 43 54 57 44 42 33 27 26 26 26 24 29 28 27 24 19 17 19 23 29 23 18 15 13 17 15 15 12 12 12
14 5 31 49 52 42 35 32 29 27 24 20 23 27 19 19 23 16 14 18 22 30 21 21 19 16 16 16 16 14 13 13
13 10 10 23 40 33 30 25 29 29 25 21 24 28 12 11 16 18 20 19 24 24 21 20 18 18 18 16 17 16 15 15
7 10 2 13 12 18 30 16 16 25 33 19 15 17 22 20 20 19 22 20 18 23 21 19 18 19 17 15 15 16 17 17
5 7 3 5 6 9 13 16 17 10 13 14 14 16 18 19 19 20 18 20 23 24 22 19 18 15 15 15 17 17 19 21
8 8 9 9 12 12 14 18 15 26 22 16 17 17 16 18 18 20 17 22 24 20 17 18 15 14 17 18 20 20 21 23
14 14 13 13 14 16 14 19 15 12 22 26 23 18 19 16 21 20 21 25 23 18 18 17 15 17 19 21 22 23 23 26
11 11 9 11 14 15 16 14 17 18 20 17 21 21 19 21 17 17 26 20 18 17 17 18 18 19 21 22 25 26 27 29
8 8 9 9 12 12 20 18 21 15 17 19 23 28 19 18 19 21 20 16 16 18 18 18 18 19 22 26 28 27 28 30
1 11 10 7 8 8 10 11 16 17 18 21 16 15 17 19 18 19 17 17 19 20 18 19 20 23 26 29 30 30 32 32
6 9 11 7 4 3 7 11 13 13 17 19 17 17 17 19 14 12 16 19 19 18 18 20 23 27 30 33 34 31 32 34
12 12 12 9 9 12 11 13 14 16 14 10 10 13 13 11 13 12 18 19 16 18 21 23 25 32 34 38 39 34 36 38
15 13 14 13 12 10 9 9 9 8 7 7 7 8 8 13 13 13 16 19 20 23 24 26 26 33 37 41 43 43 46 48
9 9 10 10 12 10 8 7 5 5 5 5 7 9 12 17 17 15 19 19 22 26 31 28 27 28 31 33 37 40 44 49
4 5 6 7 6 7 8 8 8 6 6 6 6 12 15 17 15 15 18 19 19 22 25 28 32 33 34 34 36 37 36 39
3 3 3 5 4 4 5 5 7 10 12 14 12 11 15 15 14 16 17 19 23 27 29 33 37 40 44 46 52 36 41 41
4 5 4 5 7 8 8 9 10 12 14 15 14 13 14 16 16 20 22 25 26 29 33 37 41 43 49 52 47 42 45 43

GFSFLT2_500_spd_087.txt.gz
Wind_Speed
47 47 46 47 49 49 51 41 37 40 26 30 27 19 20 22 19 21 21 22 21 20 21 24 27 27 26 27 23 19 18 16
29 38 45 45 52 51 42 46 42 27 32 33 24 19 23 24 24 22 24 26 27 24 27 32 29 30 31 31 23 16 17 15
8 16 25 37 42 54 47 58 47 39 43 30 22 22 24 23 27 23 25 28 31 24 27 24 26 22 28 26 15 17 17 17
6 13 23 30 36 46 42 50 48 42 31 25 26 26 24 24 24 25 25 25 29 30 28 24 22 19 20 21 17 17 17 18
8 7 16 32 34 42 54 52 39 43 30 28 26 24 25 25 27 27 21 21 21 25 31 28 25 20 18 20 18 17 17 18
10 5 9 5 28 50 41 43 39 26 26 25 21 20 27 21 21 17 22 23 23 23 25 27 23 20 22 21 19 18 19 19
10 11 15 16 35 46 51 43 28 25 28 26 23 19 27 25 23 21 21 23 24 26 24 23 23 20 21 21 18 18 19 19
6 9 14 13 29 40 31 28 27 27 28 33 29 19 22 23 25 24 27 23 22 28 23 23 23 20 20 19 18 18 19 20
4 8 7 9 9 21 30 20 21 29 18 25 28 23 24 23 25 24 29 26 26 26 24 25 23 19 19 19 18 20 21 22
9 6 8 11 9 13 13 17 19 27 22 23 24 21 21 20 24 25 25 23 28 24 27 22 20 17 20 19 20 23 24 24
11 11 10 11 15 17 17 21 23 21 20 23 26 29 25 26 27 27 26 27 23 23 20 20 17 19 19 20 21 24 23 26
11 12 13 13 16 19 22 23 24 16 22 27 32 30 27 28 26 27 24 23 21 19 19 20 17 18 22 22 23 24 26 28
10 11 16 13 15 15 18 23 25 23 26 24 29 27 27 28 20 17 19 21 20 18 18 18 19 21 22 24 24 27 30 32
10 9 17 12 12 14 16 21 33 31 31 28 24 25 21 16 14 17 21 21 18 19 20 21 24 24 25 26 28 30 33 33
11 12 13 15 16 17 19 21 21 18 20 18 18 20 20 19 19 20 20 17 22 21 25 23 24 26 29 30 32 33 37 39
9 10 11 12 15 15 13 15 16 17 16 14 14 16 18 17 18 17 17 20 23 22 22 24 26 28 31 33 34 35 33 37
8 9 7 10 12 12 11 12 11 10 11 12 13 12 11 13 17 19 19 19 21 20 25 27 28 29 32 33 35 37 38 39
8 8 8 8 9 10 9 11 12 14 14 13 11 11 15 18 23 22 19 19 21 23 25 27 29 29 31 34 37 40 41 40
6 5 5 4 3 5 4 6 7 7 10 11 11 11 14 18 18 20 20 22 24 24 28 29 31 32 35 39 42 40 47 48
6 6 8 6 5 4 4 6 8 9 12 15 15 16 17 19 19 22 22 24 26 28 29 31 33 35 40 42 39 42 41 43

GFSFLT2_500_spd_090.txt.gz
Wind_Speed
30 29 32 31 31 32 29 34 34 37 39 34 25 25 20 19 16 15 12 15 17 19 19 20 22 25 24 26 25 22 23 24
33 33 34 34 39 39 31 34 38 35 38 27 30 21 21 16 18 18 16 16 16 20 22 24 25 27 30 34 28 29 28 22
27 30 38 38 38 34 35 33 38 34 39 34 30 26 19 19 17 17 19 18 18 22 24 25 27 28 28 29 27 29 25 18
18 19 23 25 25 41 31 33 31 33 46 37 34 22 20 18 20 17 16 18 20 25 25 32 32 30 28 28 25 24 25 20
17 11 16 31 39 38 39 35 26 32 48 39 29 24 21 21 22 20 21 21 21 26 24 24 28 28 28 27 24 27 24 19
13 10 7 17 36 40 39 41 29 33 41 33 33 26 22 24 24 23 18 24 26 28 25 24 26 25 25 25 25 23 21 20
8 7 6 4 27 47 52 38 40 45 36 33 32 26 23 22 24 25 28 25 22 27 26 26 27 25 23 29 24 23 22 21
6 13 20 8 10 38 44 47 41 35 39 34 29 27 23 23 26 26 29 33 31 28 28 28 28 25 25 26 22 20 21 22
4 7 17 14 20 36 41 38 40 37 27 28 30 30 27 22 24 27 25 21 30 31 28 30 25 23 22 21 19 20 23 22
8 4 7 15 16 29 40 41 34 28 32 27 30 28 28 31 27 27 27 28 30 30 30 26 24 22 19 18 19 21 21 22
11 6 8 8 14 21 20 16 20 24 31 24 24 30 29 27 22 26 26 29 28 28 26 26 25 23 19 19 19 21 23 24
11 8 9 11 13 19 19 21 22 26 30 26 24 23 31 32 28 25 29 28 28 29 25 26 23 19 20 22 22 23 24 25
11 11 15 15 20 22 23 25 19 24 24 25 27 27 31 34 32 28 28 29 28 25 21 23 23 23 22 23 22 25 26 28
12 8 14 13 16 21 27 30 33 28 27 27 24 27 31 32 31 28 28 24 24 24 25 24 24 22 23 26 27 27 29 29
12 15 16 18 14 18 21 26 30 34 30 29 29 29 29 26 24 22 20 19 22 24 24 24 23 22 24 26 27 29 31 32
5 6 7 8 10 14 20 23 24 31 35 32 31 27 24 23 20 20 19 20 23 24 26 24 26 22 25 29 30 30 31 34
4 7 7 7 6 7 7 9 14 17 19 17 13 13 16 18 20 20 21 22 25 25 26 28 26 25 29 30 33 34 33 35
2 1 5 8 9 10 11 13 15 16 17 18 17 16 18 21 23 23 24 25 25 26 29 30 28 29 30 33 35 37 38 39
4 4 4 4 6 7 9 11 12 13 12 11 12 15 18 20 21 22 25 28 26 29 29 27 30 33 36 36 37 38 41 43
6 6 5 7 7 8 8 9 10 11 11 13 16 15 15 15 17 18 20 26 30 32 31 30 32 34 35 36 39 41 44 46

GFSFLT2_500_spd_093.txt.gz
Wind_Speed
26 42 43 17 39 27 26 28 31 27 28 35 37 28 27 22 19 13 11 15 18 16 14 17 17 17 18 20 22 22 25 24
17 23 24 15 19 24 21 17 19 30 24 39 37 33 28 25 21 16 15 15 16 16 17 19 20 20 20 22 22 23 26 22
17 25 23 24 21 23 23 20 26 28 27 35 36 34 27 26 22 20 18 16 17 18 23 20 20 22 24 22 23 26 23 23
14 20 28 28 26 31 34 26 29 31 27 35 39 36 33 28 27 22 15 16 17 19 20 20 23 27 27 26 28 27 25 22
12 15 19 24 27 37 27 41 28 28 30 37 37 38 39 32 27 20 17 15 16 20 22 23 28 25 25 29 30 28 24 21
10 16 18 24 31 31 44 46 33 34 29 30 41 37 34 30 26 20 20 18 18 26 26 28 25 25 24 26 29 28 22 21
12 7 11 21 41 48 42 40 44 34 32 34 38 38 34 33 25 23 22 19 21 25 23 25 28 28 25 27 28 24 21 21
14 11 10 11 24 44 48 49 47 42 31 34 41 42 37 33 27 24 24 22 20 29 25 26 27 30 28 27 27 22 22 23
12 5 11 6 18 25 48 50 42 43 30 36 40 38 36 32 28 26 26 23 27 26 28 29 29 30 29 29 27 26 28 22
15 11 11 2 6 16 41 45 43 36 35 37 40 37 34 32 28 25 23 25 27 24 26 27 29 30 28 26 23 26 23 20
14 9 5 9 6 21 26 39 45 41 33 42 39 32 34 33 31 30 24 28 25 28 28 27 29 28 26 22 22 22 23 23
11 6 6 14 15 21 29 31 43 32 37 33 32 35 29 37 32 27 24 26 26 28 30 30 31 27 24 25 23 22 21 21
11 8 8 13 22 18 20 28 30 27 32 31 32 30 25 31 32 29 29 28 27 30 31 32 29 27 23 21 22 24 22 23
10 9 14 11 17 27 22 25 28 22 24 28 29 28 28 28 29 34 33 29 29 30 30 28 25 20 22 22 22 22 25 25
11 10 11 20 16 22 25 23 30 25 27 29 34 33 33 32 30 34 32 32 30 31 28 25 21 22 24 25 24 24 26 27
2 3 7 12 16 20 23 27 25 32 30 33 35 32 31 30 27 28 28 28 23 22 21 22 24 24 25 27 27 25 27 29
4 2 1 4 9 14 20 23 25 26 30 32 31 30 31 30 29 26 23 18 19 22 23 24 27 28 28 30 28 27 31 33
1 2 3 4 4 5 8 10 13 15 17 23 26 21 16 14 14 16 19 20 24 24 26 26 28 31 33 34 34 33 34 37
5 5 5 3 3 3 4 5 7 7 9 10 12 13 14 15 16 18 21 23 26 28 29 31 31 35 40 37 34 38 44 43
6 6 6 6 7 8 7 8 9 9 10 11 13 16 14 13 15 18 20 20 24 27 32 34 38 37 38 37 36 47 46 45

GFSFLT2_500_spd_096.txt.gz
Wind_Speed
18 21 36 46 47 49 36 34 27 30 30 27 29 35 29 27 25 22 21 18 18 15 16 13 13 15 14 15 18 20 18 20
14 9 36 36 39 29 34 36 29 28 26 25 28 37 34 30 27 26 23 20 17 17 18 18 15 13 13 18 21 20 21 20
13 7 7 31 23 42 38 42 28 29 31 27 30 32 36 34 30 29 24 21 20 19 19 19 16 14 20 21 23 23 22 21
17 8 10 23 24 17 40 36 29 27 29 28 24 36 39 36 32 30 26 22 20 20 20 17 18 16 20 25 25 24 26 25
16 10 11 20 21 25 27 37 31 24 28 29 25 36 41 35 33 29 26 20 22 21 18 19 19 20 22 21 23 24 26 27
20 14 15 18 23 25 29 39 26 32 29 28 30 37 39 36 33 30 28 25 24 22 21 22 21 20 20 21 24 23 25 27
18 21 14 21 21 28 35 34 36 40 30 30 30 38 39 39 38 32 31 32 25 24 24 23 21 19 22 25 26 25 27 28
19 21 22 15 23 32 34 28 38 34 40 34 29 36 41 44 40 36 35 32 25 23 24 25 20 22 22 28 24 27 27 26
19 19 21 18 13 27 40 43 43 40 41 35 37 35 38 40 42 37 36 31 29 25 28 26 28 26 29 27 27 27 26 27
17 21 22 23 27 22 38 50 47 46 44 44 35 34 37 40 41 37 36 31 28 30 29 27 27 31 24 28 28 29 29 26
17 21 21 20 23 22 32 39 53 50 44 50 42 39 41 44 46 41 36 30 30 31 29 27 27 27 27 27 28 27 26 25
14 17 18 20 13 14 28 40 48 43 47 40 41 41 41 42 44 39 33 34 30 30 30 29 27 27 27 29 27 25 22 20
12 14 13 13 5 13 24 36 39 45 37 35 41 42 42 44 39 35 34 34 31 27 27 27 30 30 28 30 27 24 22 23
9 11 12 11 11 17 24 30 37 36 39 43 42 44 41 36 33 33 36 34 31 31 32 32 30 29 28 30 23 18 22 24
8 9 8 12 6 13 23 27 25 40 31 35 41 38 36 38 34 26 30 34 35 37 35 33 32 28 30 24 17 21 25 24
7 10 9 10 13 17 17 19 23 30 20 25 34 28 27 30 34 30 31 33 34 33 33 32 31 25 26 20 23 25 27 28
6 3 4 7 14 15 18 21 25 24 29 26 28 29 30 31 31 32 31 31 30 30 30 24 24 25 23 24 25 26 28 31
2 5 2 1 5 12 15 21 23 25 35 33 22 29 34 36 34 37 32 29 24 20 20 20 22 23 26 28 29 31 32 33
5 5 4 2 2 6 8 9 14 18 20 21 23 26 29 25 20 19 17 17 20 20 21 22 25 30 32 34 34 35 39 42
7 7 8 6 6 5 7 8 9 9 9 8 9 10 11 13 13 15 17 17 20 22 22 25 28 30 33 35 38 41 44 44

GFSFLT2_500_spd_099.txt.gz
Wind_Speed
31 33 36 39 45 64 48 37 36 33 31 26 24 21 32 34 29 25 24 25 22 16 15 16 17 17 19 17 15 15 16 15
31 32 34 38 41 60 49 48 40 36 31 31 31 29 28 38 33 30 27 23 18 15 16 17 17 19 18 17 14 16 18 17
31 31 30 29 34 48 33 46 38 35 32 34 31 31 32 39 37 30 27 22 18 17 15 16 19 19 17 18 17 18 18 20
29 23 25 13 26 40 36 51 46 42 34 32 34 29 30 35 34 29 28 21 20 17 17 18 19 21 21 20 19 21 19 21
25 19 22 6 17 28 36 37 42 38 33 30 32 29 24 37 34 32 29 25 23 19 19 22 21 22 23 19 21 21 19 19
24 15 22 11 16 33 25 34 30 31 23 30 28 25 26 38 40 35 29 28 25 23 23 20 21 19 22 22 23 20 17 17
19 17 19 13 18 26 26 38 32 33 26 25 28 28 27 35 41 37 33 31 28 27 22 22 21 20 23 25 22 19 19 19
17 16 16 9 18 22 26 28 38 39 29 34 26 28 28 34 42 38 34 33 32 26 25 24 21 23 24 23 24 23 23 23
20 14 15 18 11 26 29 32 36 34 38 31 29 32 31 33 44 37 34 35 34 30 28 27 23 24 27 30 28 28 26 29
24 14 18 17 21 25 26 37 35 35 45 46 37 30 34 36 41 41 39 37 37 33 30 28 28 26 28 31 32 28 30 29
22 16 17 18 22 27 20 40 44 44 39 45 45 39 37 37 41 44 46 39 42 34 28 30 30 29 28 31 31 30 30 29
16 13 14 15 21 27 22 34 41 50 45 43 39 43 43 41 42 41 43 43 41 33 32 30 28 30 31 31 30 31 30 29
15 14 15 14 19 27 28 33 38 49 52 44 45 46 44 44 38 39 47 42 42 36 34 32 32 33 31 32 32 31 31 31
14 11 15 13 16 21 26 25 33 38 46 49 44 43 45 49 47 47 45 41 43 31 32 33 31 30 32 33 33 32 30 27
12 12 13 13 13 19 11 24 34 35 38 40 42 43 45 44 42 41 39 37 35 36 33 32 33 34 34 33 32 27 28 22
13 10 14 14 13 10 4 11 15 27 35 41 44 41 37 36 36 37 41 36 29 28 30 34 36 34 31 30 26 27 27 22
11 10 9 13 13 9 14 9 7 20 23 28 33 32 36 32 37 40 32 32 27 27 28 31 31 28 27 24 22 24 26 25
8 8 6 7 5 12 13 12 13 10 17 20 24 25 26 29 29 26 33 30 26 28 26 21 18 18 18 22 21 26 27 31
9 10 9 5 5 4 8 11 15 15 14 15 21 24 20 25 26 28 29 29 23 19 16 16 18 20 22 22 26 29 32 36
10 11 11 8 5 6 1 2 5 11 13 12 16 18 19 16 15 17 13 12 15 18 20 19 21 20 23 24 28 30 35 37

GFSFLT2_500_spd_105.txt.gz
Wind_Speed
22 24 27 27 29 29 30 31 34 40 43 42 42 30 23 22 28 26 29 36 41 39 37 25 23 21 20 17 18 21 16 15
21 24 30 32 31 31 30 30 35 38 37 42 35 35 29 26 28 20 22 28 37 43 38 30 23 17 12 17 21 20 16 13
23 25 29 31 30 30 30 35 40 41 40 37 40 37 34 24 27 22 23 20 26 36 27 19 14 17 18 20 18 17 14 14
20 27 26 29 29 27 33 40 39 41 43 43 56 39 37 29 29 23 27 25 28 20 15 16 17 15 16 17 15 13 13 15
24 24 27 26 28 27 36 31 25 40 53 48 48 40 39 32 19 26 29 32 26 19 17 19 18 17 17 11 14 13 14 14
26 26 24 25 25 27 22 16 18 45 50 52 46 45 37 30 23 23 24 28 24 22 23 19 17 16 14 10 16 10 12 13
28 25 22 23 23 21 14 9 18 22 52 54 46 37 42 32 26 24 26 30 28 27 25 20 20 19 13 9 16 7 11 11
28 26 23 21 19 16 14 6 15 21 38 53 38 39 40 35 29 24 30 34 33 31 29 22 20 21 16 13 11 14 13 15
26 26 22 19 14 9 15 6 28 30 50 47 41 41 32 30 25 25 30 36 35 32 31 27 23 22 19 15 12 15 17 16
24 25 21 16 13 9 5 8 13 21 35 33 37 34 32 25 25 26 35 34 37 35 31 30 24 22 21 17 18 19 21 17
23 24 19 14 11 12 8 2 5 9 25 32 33 31 30 30 28 27 34 36 38 36 32 31 26 24 21 22 23 20 19 20
21 23 15 11 9 11 11 9 7 6 14 31 30 25 29 31 27 26 31 32 35 37 36 33 28 25 27 26 26 25 19 19
19 21 15 11 9 10 11 13 16 11 12 22 32 34 31 35 35 30 33 29 33 32 32 33 32 30 27 29 29 29 28 25
15 17 18 11 8 10 13 14 15 15 19 24 32 41 37 37 35 37 30 27 22 28 30 35 32 31 31 34 33 29 29 28
13 15 16 14 9 12 14 12 12 18 30 34 33 42 38 37 42 41 31 26 24 27 28 29 32 34 32 35 34 30 30 29
12 13 12 13 12 12 13 13 13 16 23 27 36 38 41 39 42 42 37 30 32 30 30 32 36 36 33 33 27 29 29 31
10 12 12 12 12 11 12 10 13 19 12 18 34 35 45 42 40 36 37 32 36 34 33 37 40 32 28 26 25 27 30 28
8 13 13 11 12 11 11 10 6 14 20 12 44 40 35 45 39 35 33 32 33 38 38 31 29 28 25 23 24 26 23 21
9 12 10 8 10 9 8 7 5 3 11 6 18 32 34 38 40 34 31 33 34 33 30 28 27 24 22 23 21 21 23 23
11 10 11 9 9 9 6 6 3 6 4 6 5 21 33 32 30 33 30 28 30 29 24 25 26 20 16 17 21 22 24 27

GFSFLT2_500_spd_108.txt.gz
Wind_Speed
22 19 17 20 21 25 28 30 33 32 30 28 20 30 31 32 25 26 32 31 31 34 37 38 38 35 35 24 21 19 16 15
23 21 19 21 23 26 31 32 34 34 27 27 30 36 28 29 21 21 31 28 28 34 38 39 36 29 14 17 19 17 16 14
27 23 22 26 27 30 31 31 33 35 37 31 30 30 35 26 27 20 31 26 28 37 42 35 29 22 19 15 16 15 13 13
27 27 27 28 31 31 31 30 28 35 38 35 31 36 38 37 36 22 26 23 21 23 32 30 33 21 18 17 15 16 13 12
25 27 29 30 32 33 32 26 32 30 28 34 37 26 40 41 34 25 23 18 16 11 12 20 16 16 21 17 14 12 12 11
27 28 29 32 31 33 29 26 28 27 26 38 40 40 47 33 27 30 27 23 19 20 21 21 16 16 14 15 13 13 12 12
27 30 30 32 31 30 26 27 26 25 31 38 46 45 49 41 35 24 24 25 28 27 23 20 19 16 18 15 13 10 8 11
27 29 29 31 30 28 21 25 20 21 15 42 50 52 50 38 37 29 26 26 31 28 25 26 24 20 19 14 11 14 14 14
27 27 29 31 28 25 18 18 18 19 23 42 56 47 43 40 36 30 27 29 28 28 29 30 28 19 18 15 15 16 18 12
25 25 28 27 24 19 14 11 13 11 23 44 54 50 43 43 36 30 30 29 32 33 33 32 31 20 19 19 18 20 18 14
21 23 25 24 20 13 12 9 11 9 23 41 48 45 37 39 37 31 33 33 32 34 35 34 34 24 21 23 23 22 17 17
19 22 21 21 17 13 12 9 2 5 29 40 33 37 40 34 30 32 35 34 34 33 34 35 35 29 27 27 27 22 23 22
18 20 19 18 17 14 12 13 10 7 6 17 33 37 37 34 33 33 29 29 34 36 36 36 37 32 30 26 19 23 28 27
18 18 18 15 15 14 12 11 11 12 13 13 20 30 37 33 31 32 28 29 27 32 37 37 36 39 33 32 30 30 26 30
17 18 16 14 13 13 14 12 13 13 15 17 16 21 25 34 34 37 34 28 25 30 27 30 31 33 36 33 31 29 31 28
18 17 15 13 13 11 11 14 17 19 16 20 22 28 34 35 38 34 33 32 28 27 25 23 24 28 32 33 32 33 36 30
17 17 15 13 14 14 10 11 16 20 19 20 21 30 35 39 40 39 37 36 37 31 31 31 31 27 27 30 35 31 30 28
17 16 15 13 15 13 10 10 13 15 14 17 26 38 28 36 34 41 37 40 38 34 32 31 31 31 27 30 26 31 32 29
17 16 15 10 11 12 10 9 11 13 9 7 21 37 41 40 37 37 35 36 36 34 29 41 33 35 31 32 27 29 31 30
16 17 16 13 14 13 8 8 7 10 8 5 10 37 38 40 36 35 36 34 36 32 32 31 28 29 33 34 30 31 26 25

GFSFLT2_500_spd_111.txt.gz
Wind_Speed
29 28 24 22 23 24 27 28 29 29 27 29 32 40 30 32 19 17 22 19 23 23 23 27 27 30 31 30 32 39 37 35
30 30 26 22 23 27 30 31 33 29 30 29 30 23 22 22 22 25 21 21 25 28 28 30 31 34 33 29 36 37 26 5
31 30 27 22 24 29 32 34 35 33 28 28 30 28 27 33 30 25 22 23 25 28 29 32 36 40 38 37 41 27 12 14
32 29 29 28 28 32 36 36 36 35 30 29 30 31 31 27 32 26 19 22 26 27 30 33 34 39 33 27 14 13 9 12
31 29 29 31 33 34 37 39 38 36 30 32 30 27 29 29 35 39 30 22 27 25 31 34 36 36 22 18 12 10 10 11
28 28 27 30 33 35 39 39 34 33 32 25 29 29 30 30 35 31 31 21 22 19 20 24 24 18 20 18 13 13 13 11
26 26 26 29 31 36 39 34 31 25 29 24 31 35 36 37 39 36 26 28 22 19 21 23 23 23 20 16 18 17 15 16
24 24 26 28 31 38 37 31 28 25 24 21 26 33 44 36 38 44 39 36 29 23 25 25 26 27 20 18 18 17 16 16
22 24 25 27 31 35 34 26 21 24 23 21 22 36 42 41 35 34 35 34 30 28 30 29 29 26 20 21 17 18 19 17
22 24 24 25 31 34 30 20 18 26 22 30 36 40 46 45 47 37 32 33 29 29 28 27 29 26 24 23 21 20 19 15
21 21 21 24 28 32 26 18 19 27 18 23 33 49 45 46 51 41 38 34 29 29 30 32 31 30 26 23 22 21 20 19
20 20 18 22 25 29 24 17 18 21 10 14 46 48 46 52 48 41 39 35 32 27 32 33 34 34 31 24 23 24 24 24
19 19 17 18 23 25 21 16 15 14 11 14 45 42 49 53 46 41 36 33 28 30 34 35 36 35 31 28 25 25 28 30
18 19 17 15 20 21 19 14 14 11 10 11 31 42 48 41 40 40 36 33 33 33 35 38 33 33 29 31 30 30 30 27
19 20 17 14 16 19 16 15 13 14 11 12 16 38 43 45 39 32 32 29 27 29 31 31 33 32 33 35 35 36 37 36
20 21 17 13 15 19 18 13 14 16 16 18 18 19 36 44 34 31 30 31 29 27 27 33 35 33 34 32 34 35 39 40
22 19 17 13 15 18 19 15 14 16 18 21 20 22 24 23 27 33 32 33 32 30 27 32 31 30 28 29 31 35 32 34
25 19 16 14 15 16 17 16 15 17 18 21 25 26 28 35 38 37 36 39 39 37 34 31 32 31 31 30 30 28 26 27
22 18 16 16 14 15 17 18 16 17 18 19 21 29 34 32 37 42 38 41 43 38 41 37 36 34 34 32 29 30 30 30
18 18 18 17 16 17 19 19 17 15 15 18 26 33 33 48 46 41 36 37 43 41 42 46 34 33 37 37 33 33 28 27

GFSFLT2_500_spd_114.txt.gz
Wind_Speed
26 25 24 25 21 22 23 25 26 28 28 26 21 30 30 28 28 27 22 11 11 16 17 21 19 21 22 22 20 20 26 28
26 25 23 22 21 21 23 25 28 31 31 30 28 27 29 25 30 30 21 21 15 20 24 24 24 24 26 24 25 28 29 26
25 25 23 22 22 22 24 26 28 31 32 31 30 28 29 22 16 22 20 19 14 23 24 24 25 26 26 26 25 26 26 29
29 26 23 23 24 25 25 27 28 31 33 32 31 29 30 27 24 21 30 19 18 23 27 27 24 25 29 32 30 33 30 35
33 30 26 23 23 26 26 28 29 34 32 34 30 28 32 31 27 22 25 19 17 18 25 26 25 31 32 32 32 32 19 15
35 30 31 24 23 25 27 30 31 34 34 32 30 28 27 21 22 26 28 29 20 16 28 27 29 26 24 28 21 11 7 9
31 31 31 29 24 24 27 30 33 33 31 31 26 28 25 23 24 30 33 34 21 24 27 23 24 26 25 18 19 15 13 13
33 31 31 30 25 23 26 30 32 30 29 22 27 29 30 32 30 27 34 30 23 25 21 21 24 23 24 21 21 18 17 17
34 31 32 31 26 22 26 29 30 28 21 21 30 26 28 37 35 32 33 29 29 27 25 30 27 28 24 19 23 21 20 20
35 29 34 28 24 21 24 27 28 27 24 25 34 27 30 33 42 38 39 38 33 29 31 31 29 28 26 26 25 22 22 22
34 31 35 28 23 21 22 25 27 26 25 25 37 30 35 37 41 42 39 44 37 34 36 34 33 31 31 27 26 24 25 24
32 31 33 28 21 20 20 24 26 25 24 27 32 25 35 38 42 38 40 42 41 38 38 35 33 32 30 30 29 26 26 24
32 34 34 25 20 19 18 22 24 22 21 25 36 26 38 40 47 44 43 36 36 37 37 37 35 34 33 31 29 24 26 23
33 34 34 24 19 17 18 18 22 20 20 21 32 22 29 44 47 51 46 35 38 36 35 34 36 37 36 32 31 28 26 26
33 35 34 24 17 16 16 17 20 21 18 17 19 20 23 30 46 51 45 41 35 33 34 36 38 39 36 36 34 31 31 30
35 37 30 22 17 17 15 14 18 20 15 18 13 14 27 32 41 46 44 41 39 34 33 32 35 35 35 36 33 31 33 35
34 37 31 21 17 16 14 14 17 18 15 15 17 13 10 38 45 45 45 39 35 34 31 29 32 34 34 33 34 33 36 32
32 35 30 20 19 16 13 12 14 17 17 14 15 16 17 21 37 44 45 32 33 33 30 30 31 32 35 37 36 36 34 33
34 34 30 21 20 17 13 13 15 16 17 17 17 19 21 21 24 24 31 33 33 34 33 34 29 28 35 36 34 33 32 30
34 30 31 24 21 18 14 15 17 15 17 17 17 21 23 27 28 27 40 37 34 34 38 38 35 35 33 35 37 34 33 29

GFSFLT2_500_spd_117.txt.gz
Wind_Speed
32 31 25 23 22 20 20 16 15 19 21 22 21 21 22 21 26 19 27 23 15 13 21 27 25 25 21 20 19 19 19 21
32 35 30 25 24 21 20 19 17 20 21 21 22 23 22 18 25 20 19 22 20 19 21 29 25 24 24 22 21 20 21 24
26 33 34 26 27 23 21 20 20 21 19 21 24 24 22 21 22 24 17 25 24 23 22 29 28 27 24 22 22 22 23 23
26 30 33 28 29 26 23 22 21 22 21 23 25 25 23 21 22 21 20 24 24 13 25 31 29 28 24 21 20 22 25 25
32 29 32 29 29 28 27 24 23 23 24 23 24 25 21 24 25 23 22 24 20 19 22 28 29 27 24 25 26 26 27 26
34 30 30 31 30 28 29 25 25 25 28 25 23 21 21 22 24 24 25 24 22 18 23 29 31 27 26 28 29 28 28 31
33 31 33 31 32 28 30 27 25 27 29 28 24 20 22 23 18 20 26 28 27 25 23 23 29 28 27 29 24 23 25 22
33 31 37 31 31 30 30 28 25 26 27 26 23 20 17 22 17 21 27 31 33 29 25 24 28 28 29 25 23 22 19 16
28 33 36 31 31 31 29 27 25 24 26 23 18 16 19 25 23 27 30 31 33 29 21 27 27 27 27 26 26 24 20 22
28 33 33 31 31 33 30 26 24 23 25 23 20 23 24 31 26 33 31 31 34 33 31 30 27 28 29 29 24 24 23 23
28 32 29 31 33 35 32 26 22 21 23 24 22 23 25 37 31 33 37 36 36 35 33 31 32 32 31 29 28 27 27 25
28 30 29 31 33 35 33 26 22 19 20 23 22 24 24 29 33 33 41 37 38 39 34 35 36 34 33 29 29 29 28 26
29 29 29 32 32 34 31 26 21 18 18 22 24 23 32 26 35 36 45 42 46 40 37 38 37 36 35 33 33 31 28 25
30 28 30 31 33 36 29 25 21 18 18 21 23 21 29 27 36 38 41 46 47 44 47 40 41 39 38 36 34 32 29 28
32 28 29 32 36 38 29 26 20 17 16 18 22 19 19 28 28 39 44 41 43 41 44 42 43 40 36 35 34 31 33 32
31 29 31 34 38 37 29 25 20 17 15 16 19 15 21 18 34 43 41 40 41 41 43 44 44 38 37 36 36 36 35 35
30 32 31 34 37 34 28 24 19 16 13 14 18 15 13 6 23 36 43 43 45 44 43 41 39 37 38 38 39 39 37 36
32 33 32 36 34 31 28 23 18 15 13 12 17 14 12 12 17 34 40 53 49 44 36 35 37 37 40 41 40 40 40 39
34 34 34 36 32 30 27 23 18 15 14 12 15 16 13 13 10 24 43 47 51 44 42 40 37 36 35 38 41 40 37 36
34 33 37 40 32 31 30 24 21 16 13 14 14 16 15 15 16 13 20 44 46 40 37 34 35 35 35 35 37 38 38 39

GFSFLT2_500_spd_120.txt.gz
Wind_Speed
21 24 24 21 24 24 23 23 21 20 20 22 20 15 15 16 15 19 20 17 23 24 23 24 28 31 33 25 29 23 21 20
21 23 29 27 22 25 24 25 23 20 20 23 22 20 16 16 17 18 18 15 20 18 17 22 26 30 33 27 25 22 22 21
23 22 26 30 27 26 25 26 23 23 21 22 22 22 20 16 18 15 18 16 18 17 17 22 28 27 32 30 28 26 23 23
26 23 25 29 31 31 28 26 25 24 22 21 23 24 23 20 19 16 16 15 18 18 18 22 28 29 34 31 31 26 25 23
27 28 28 29 31 33 30 27 25 26 24 23 23 24 24 23 21 17 17 14 16 24 23 29 29 35 35 33 32 28 27 25
25 27 30 30 31 33 31 28 27 27 26 25 24 26 23 21 21 15 17 17 18 21 23 21 27 35 36 34 32 31 25 26
27 26 32 32 31 32 32 29 28 28 27 25 24 26 23 20 20 15 17 16 24 26 24 26 27 34 33 34 33 29 25 28
30 28 35 33 31 31 32 30 29 28 27 25 24 23 19 17 18 16 13 16 24 23 24 24 29 33 33 34 30 27 27 28
30 29 35 34 30 30 32 31 29 28 28 25 23 20 17 14 17 19 17 19 25 28 31 29 26 33 35 37 32 29 26 25
31 32 33 35 29 30 32 32 30 30 30 26 22 20 19 22 22 23 22 23 27 31 34 34 31 28 37 37 29 29 26 23
33 34 34 33 29 31 32 32 29 29 32 27 20 20 19 21 25 24 25 24 33 36 39 35 33 26 31 32 33 31 26 27
33 35 34 33 29 31 31 31 29 28 31 28 22 19 21 23 23 24 27 31 35 36 35 38 37 32 31 35 36 31 28 27
34 33 32 33 29 32 31 31 28 28 30 27 24 20 19 22 25 30 27 38 38 35 38 40 38 36 35 40 36 30 30 27
35 33 33 31 30 34 31 30 28 30 29 26 26 23 21 22 29 33 33 42 43 42 41 44 40 36 37 37 34 32 30 28
35 33 32 30 31 33 30 29 28 30 29 26 27 24 22 22 27 27 37 37 43 43 43 41 38 39 36 36 34 32 31 32
35 34 31 29 32 31 31 32 30 30 28 27 27 25 22 22 27 31 39 40 43 49 48 44 44 39 40 37 35 35 35 36
35 35 30 29 33 32 32 32 32 30 26 26 25 23 21 21 26 31 47 51 43 49 48 47 49 47 40 42 41 36 39 37
35 35 29 29 33 31 34 34 33 31 26 26 24 21 20 19 22 22 37 44 40 46 48 52 48 48 48 45 44 41 40 41
35 35 28 30 33 33 36 36 34 30 26 26 24 21 19 20 17 16 28 41 41 45 48 49 49 47 45 42 39 39 40 41
37 33 27 34 34 34 36 38 31 30 28 27 26 21 19 17 18 16 18 34 44 45 46 46 48 46 47 44 41 42 43 44

GFSFLT2_500_spd_123.txt.gz
Wind_Speed
23 24 24 27 19 21 22 23 24 26 27 26 23 22 23 23 25 25 23 19 20 25 16 17 21 24 29 33 31 28 27 28
25 25 25 26 24 23 26 24 26 28 29 27 27 24 22 20 25 25 20 22 16 24 24 25 25 23 29 31 33 31 31 31
27 26 26 25 24 25 26 27 26 28 29 28 28 26 22 25 24 25 21 20 16 18 24 20 15 21 27 31 35 29 31 30
27 28 26 25 23 26 28 28 26 26 28 27 28 27 22 25 26 26 22 20 17 14 15 19 14 22 26 29 32 29 29 26
26 29 27 26 24 27 31 31 27 24 26 27 27 27 24 25 26 25 23 19 17 17 23 23 20 22 27 30 31 33 27 25
28 29 29 27 27 28 31 33 30 24 26 28 25 26 24 27 26 24 21 20 18 16 24 22 26 21 28 31 35 34 29 28
32 29 30 32 27 29 32 34 32 26 25 27 26 26 25 26 26 23 19 17 17 15 19 23 29 27 32 32 36 36 32 32
36 31 30 31 29 30 33 35 34 27 26 27 25 25 25 25 24 21 18 16 18 16 21 22 28 27 30 34 33 35 33 31
38 32 31 30 31 32 33 35 38 25 27 27 25 26 25 25 23 18 17 22 17 23 18 24 27 25 29 31 31 33 34 32
37 34 32 30 34 34 34 33 36 27 28 27 26 26 25 24 23 24 25 22 18 24 24 23 25 23 26 31 31 32 33 31
36 35 34 32 36 36 33 33 36 27 28 26 27 26 25 24 24 26 31 27 24 28 32 28 30 30 28 24 34 35 36 33
36 36 35 36 37 36 34 31 34 29 29 26 25 26 25 26 25 26 28 30 28 20 32 32 34 33 34 32 26 36 34 30
41 37 37 37 36 37 35 33 32 31 29 26 24 25 27 27 26 25 28 29 28 34 36 32 34 37 38 34 30 32 33 32
41 38 38 36 36 37 35 32 32 31 30 26 24 26 26 29 29 27 30 34 33 36 38 37 36 37 39 35 30 30 34 31
45 41 37 35 39 36 37 31 33 31 27 27 23 26 28 27 30 29 30 30 36 40 34 46 40 40 37 34 29 27 32 31
45 41 40 38 40 35 36 30 34 34 29 28 24 27 29 29 30 32 32 31 33 41 39 43 46 41 41 38 32 34 34 33
44 41 40 39 41 35 35 32 35 35 28 29 25 27 29 30 30 33 34 33 30 41 44 49 46 40 37 36 35 36 35 36
41 43 41 41 41 34 33 33 36 34 30 29 25 28 29 31 32 34 34 32 35 43 41 49 51 45 41 39 38 38 34 38
44 42 40 42 40 35 33 34 36 33 33 30 25 28 30 30 33 33 33 31 31 43 39 44 44 44 45 45 41 40 41 46
44 44 42 41 40 35 32 36 35 34 34 30 26 27 30 31 33 32 31 29 27 43 43 42 48 47 47 50 50 46 47 45

GFSFLT2_500_spd_126.txt.gz
Wind_Speed
28 24 24 23 22 21 21 20 20 25 25 25 27 28 31 29 27 24 28 27 24 20 24 25 24 19 18 25 29 32 28 26
31 28 26 25 25 23 22 21 23 24 25 26 28 28 29 30 26 25 28 26 24 22 21 25 20 18 22 24 29 34 29 25
33 32 29 27 25 25 25 23 25 26 27 26 29 29 28 27 26 24 26 26 24 22 18 23 21 19 20 24 30 31 32 25
35 32 31 29 26 25 27 24 26 26 29 28 31 28 28 24 26 25 24 24 24 21 21 17 19 19 16 23 29 30 31 28
34 33 31 29 27 27 28 27 28 27 30 31 31 28 26 22 22 26 27 23 22 20 20 18 22 20 19 22 26 29 27 24
37 35 34 30 30 28 28 27 28 29 31 31 29 29 26 24 22 24 27 24 20 21 22 21 22 25 17 17 24 28 27 24
43 37 36 32 32 30 29 29 29 29 31 31 30 28 25 23 22 24 24 23 20 18 20 17 19 19 22 16 23 29 26 26
48 43 37 34 33 31 30 29 31 30 30 30 29 28 24 21 22 24 23 19 18 24 21 14 15 18 25 22 24 29 27 29
46 44 40 34 33 31 32 31 32 32 32 32 27 28 24 21 21 23 22 20 23 22 21 19 19 23 26 24 24 28 31 30
49 43 39 36 30 32 33 33 32 31 34 32 28 28 25 22 20 23 24 23 28 28 24 28 28 26 24 24 24 27 29 28
46 41 40 35 33 31 34 34 32 33 35 31 28 28 23 22 21 23 26 25 28 32 33 17 22 22 23 21 21 23 27 26
39 37 36 37 32 31 36 34 32 33 35 33 29 29 23 22 21 23 26 26 29 28 30 20 21 26 24 24 23 17 22 27
41 38 35 37 36 34 36 34 33 32 36 33 29 28 23 22 21 24 27 26 27 28 28 32 25 32 28 32 31 27 26 20
39 39 38 39 37 36 36 36 33 33 37 32 29 26 26 24 25 23 27 29 27 30 31 33 27 36 33 36 33 29 27 26
37 40 40 37 36 35 38 37 35 33 37 28 29 29 28 25 25 24 26 30 30 30 34 36 33 33 37 35 34 28 26 22
42 43 42 42 38 38 40 35 36 34 37 31 32 29 27 25 24 25 27 30 32 32 35 35 39 36 36 40 34 31 26 23
45 46 44 43 38 41 37 37 35 36 37 33 31 31 28 25 24 25 28 30 32 31 32 38 40 41 44 44 39 34 31 26
43 42 41 39 38 39 37 37 34 37 37 32 30 30 26 25 25 26 28 31 34 32 35 43 37 41 43 46 43 35 33 29
44 42 41 40 40 38 39 40 34 37 37 29 32 30 27 26 26 26 29 33 33 34 34 37 38 43 39 45 41 37 37 35
44 44 45 42 43 42 45 37 35 36 34 30 33 30 28 26 27 27 31 34 33 33 33 29 42 41 45 45 46 38 36 37

GFSFLT2_500_spd_129.txt.gz
Wind_Speed
29 26 23 22 19 15 19 20 20 23 24 25 26 27 27 27 29 26 24 25 26 25 19 20 22 20 17 16 18 19 26 25
33 30 27 28 24 21 19 21 21 22 24 26 28 28 28 26 28 25 23 21 26 24 20 21 22 24 25 16 18 19 25 28
35 34 30 30 28 24 22 22 23 22 25 26 29 29 30 28 26 23 22 21 22 22 21 20 18 22 20 23 21 20 19 31
32 35 34 33 30 26 26 25 24 23 25 27 29 31 29 28 24 22 21 23 22 21 21 20 20 23 22 21 20 17 19 28
35 33 35 35 31 28 29 28 27 25 25 25 30 32 32 28 23 22 23 23 23 19 22 19 18 19 22 21 18 15 18 27
40 36 33 35 35 32 31 31 29 26 27 26 29 32 32 27 23 22 23 23 21 20 19 18 19 22 22 19 16 14 19 24
43 37 36 37 36 35 33 32 30 27 28 26 29 32 33 29 22 22 23 22 22 17 17 17 20 22 23 23 15 13 20 22
44 44 40 39 37 37 33 34 31 29 29 28 28 31 32 31 22 23 23 20 22 17 16 20 20 17 18 23 24 11 16 24
45 44 45 36 35 37 34 34 31 30 29 29 29 31 33 31 22 23 25 18 21 20 20 17 16 19 26 25 26 10 19 26
45 47 44 35 32 34 33 34 34 30 27 33 30 31 33 30 22 23 25 19 20 21 21 24 21 23 24 21 25 15 20 25
47 46 42 36 32 34 35 33 33 29 29 33 30 32 32 28 23 23 26 22 21 21 21 22 28 24 28 24 25 19 20 25
47 44 42 40 35 31 33 32 29 31 30 33 30 31 32 27 24 23 26 25 22 23 23 22 23 21 27 29 24 16 19 22
48 42 42 41 37 31 32 32 32 31 31 33 30 33 30 28 25 24 26 25 23 23 24 20 21 27 20 31 25 21 19 19
48 40 40 39 37 33 29 33 32 30 32 30 32 33 28 28 25 27 26 25 23 23 24 23 24 25 26 29 30 26 26 25
40 41 40 38 37 37 38 34 29 27 29 33 34 33 29 30 26 28 27 27 23 23 25 25 26 27 30 28 37 34 29 25
34 41 39 39 37 35 36 33 30 30 33 36 33 34 30 31 26 28 29 28 25 23 24 25 27 29 30 33 30 38 32 28
37 40 40 39 38 38 39 36 35 35 35 36 32 35 29 28 27 30 30 29 27 25 24 27 27 29 28 34 31 38 36 29
35 37 40 39 40 40 41 39 39 37 35 34 34 34 26 28 28 29 28 29 27 26 27 28 30 33 31 38 33 38 39 31
39 39 38 36 36 36 36 35 35 36 35 33 36 32 26 26 29 28 26 29 29 28 29 29 30 33 35 28 34 38 39 36
37 42 47 37 34 34 35 36 34 38 36 41 40 29 27 27 30 27 26 30 30 28 28 30 29 29 35 34 37 36 39 42

GFSFLT2_500_spd_132.txt.gz
Wind_Speed
30 30 26 25 24 21 20 19 19 20 20 22 23 25 26 27 29 32 31 23 21 22 21 21 19 16 11 18 14 20 21 23
33 37 33 30 28 25 22 21 21 22 22 24 24 24 27 29 31 31 31 22 20 21 20 21 19 13 16 25 16 19 17 19
35 37 37 37 32 29 26 23 22 23 23 24 24 23 26 30 32 32 31 20 20 19 23 20 19 17 14 22 23 15 18 19
35 36 33 35 35 33 30 26 25 24 24 24 24 24 26 29 31 31 29 21 23 21 23 21 19 17 14 20 22 19 19 19
36 34 33 35 35 34 32 31 28 28 26 26 26 24 24 28 30 30 28 22 23 21 20 22 20 18 18 24 22 17 16 20
37 34 35 34 34 34 34 33 33 31 29 27 27 25 25 26 29 30 27 23 23 23 19 21 17 17 19 18 22 19 17 17
38 38 37 37 35 36 35 35 35 33 31 28 27 26 25 26 28 29 25 22 23 23 17 17 15 15 18 16 19 16 16 16
39 40 39 36 38 39 38 38 36 34 32 29 29 27 26 25 28 28 24 22 23 23 17 14 18 15 14 18 21 21 10 17
40 41 40 40 36 37 37 37 37 35 32 33 30 28 27 25 27 27 25 22 23 22 19 16 21 23 16 20 22 20 15 18
39 42 41 42 36 34 36 36 36 35 34 34 32 28 29 26 27 26 26 23 23 23 20 16 16 20 23 21 25 24 22 20
47 39 41 43 39 34 35 37 37 37 36 36 33 31 30 26 28 26 25 23 24 24 21 17 16 18 22 18 27 27 27 21
53 46 44 45 39 36 32 33 37 39 37 37 35 32 29 27 27 25 25 24 25 23 21 19 17 15 19 23 21 24 24 21
58 53 49 47 39 38 33 32 36 37 37 37 33 31 29 27 28 27 26 26 26 23 22 20 17 16 15 18 17 31 22 23
61 59 54 46 42 40 35 34 37 39 38 37 33 32 30 28 29 26 26 28 27 25 24 20 18 19 17 17 16 26 25 23
60 58 58 49 44 46 39 34 35 38 35 38 39 35 32 30 34 28 25 28 29 26 27 22 20 20 19 19 18 22 31 26
56 52 49 42 44 46 41 37 36 37 38 40 41 33 30 32 34 29 26 29 30 30 29 24 21 20 20 21 21 19 25 35
51 49 41 37 39 41 42 41 38 35 37 36 38 34 32 33 34 30 26 28 31 32 30 28 24 21 23 23 24 23 23 32
50 48 45 40 39 41 41 41 39 35 36 37 40 39 37 33 32 30 26 28 30 32 31 29 25 26 25 26 27 26 26 29
48 46 39 33 37 35 37 40 40 38 38 41 41 40 35 32 30 30 26 28 31 33 30 28 26 28 28 29 29 30 31 32
37 41 37 36 38 33 36 39 39 36 39 38 39 37 34 32 28 31 26 29 31 32 29 28 27 29 29 29 32 30 25 21